GEFSMA_prec_meanprecacc_228.txt.gz
Total_Precipitation_Accumulation
2.14 2.44 2.44 2.57 2.23 2.22 2.28 2.20 1.98 1.87 1.70 1.52 1.43 1.39 1.42 1.35 1.42 1.61 1.64 1.61 1.73 2.06 2.48 2.69 2.66 2.67 2.61 2.50 2.34 2.19 2.01 1.90 1.79 1.66 1.45 1.24 1.17 1.17 1.19 1.22 1.22 1.19 1.17
2.64 2.97 3.05 3.00 2.74 2.76 2.93 2.96 2.75 2.49 2.24 2.09 1.86 1.81 1.76 1.74 1.83 1.88 1.86 1.79 1.68 1.75 2.19 2.60 2.89 3.07 3.04 2.78 2.51 2.36 2.29 2.17 2.02 1.86 1.72 1.54 1.40 1.35 1.33 1.31 1.30 1.25 1.18
3.19 3.31 3.56 3.48 3.25 3.22 3.25 3.21 3.38 3.34 2.84 2.49 2.29 2.21 2.20 2.13 2.17 2.21 2.28 2.20 1.94 1.83 1.96 2.26 2.56 2.77 2.89 2.89 2.75 2.59 2.58 2.34 2.13 1.97 1.86 1.76 1.66 1.58 1.50 1.42 1.41 1.41 1.33
3.52 3.57 3.57 3.59 3.49 3.44 3.70 3.80 3.74 3.66 3.42 3.05 2.80 2.52 2.39 2.43 2.25 2.21 2.24 2.27 2.30 1.99 1.81 1.81 1.98 2.18 2.49 2.81 2.98 3.01 2.88 2.65 2.42 2.22 2.13 2.02 1.88 1.72 1.57 1.48 1.46 1.48 1.46
3.95 4.01 3.98 4.05 3.90 3.93 3.87 3.73 4.04 3.95 3.78 3.43 2.94 2.64 2.38 2.39 2.29 2.01 2.02 2.10 2.16 2.05 1.96 1.78 1.83 1.99 2.31 2.67 2.96 3.16 3.14 2.97 2.77 2.58 2.47 2.36 2.19 1.97 1.77 1.63 1.59 1.58 1.59
4.68 4.65 4.58 4.58 4.44 4.32 4.17 4.10 4.12 3.87 3.71 3.46 2.91 2.65 2.37 2.09 2.05 2.02 1.83 1.86 1.89 1.77 1.86 1.87 1.94 1.82 2.02 2.31 2.62 2.88 2.98 3.05 2.98 2.73 2.53 2.50 2.42 2.21 2.02 1.89 1.80 1.73 1.74
5.09 4.94 4.76 4.85 4.69 4.48 4.24 4.11 4.07 3.94 3.58 3.42 3.35 2.97 2.42 2.04 1.89 1.77 1.77 1.75 1.64 1.65 1.85 1.87 1.87 1.81 1.75 1.94 2.08 2.29 2.60 2.85 3.06 3.03 2.89 2.77 2.54 2.29 2.16 2.08 2.04 1.98 1.90
5.35 5.17 5.13 4.97 4.75 4.59 4.36 4.16 4.08 3.96 3.62 3.52 3.51 3.44 2.78 2.26 1.77 1.41 1.50 1.54 1.49 1.54 1.59 1.56 1.55 1.61 1.65 1.74 1.71 1.91 2.22 2.50 2.81 2.99 3.03 2.80 2.63 2.42 2.32 2.28 2.26 2.22 2.16
5.63 5.46 5.39 5.13 4.90 4.63 4.30 4.04 3.90 3.78 3.65 3.60 3.47 3.56 3.08 2.47 1.98 1.58 1.38 1.31 1.36 1.49 1.49 1.50 1.44 1.39 1.47 1.63 1.72 1.74 1.83 1.88 2.19 2.53 2.68 2.72 2.68 2.53 2.43 2.40 2.38 2.37 2.39
5.03 4.90 4.85 4.67 4.48 4.20 3.97 3.70 3.59 3.51 3.62 3.46 3.38 3.21 2.96 2.61 2.35 1.98 1.63 1.44 1.39 1.39 1.41 1.39 1.38 1.40 1.42 1.53 1.65 1.66 1.62 1.56 1.70 1.95 2.15 2.24 2.29 2.29 2.30 2.31 2.30 2.33 2.41
4.29 4.06 4.00 3.89 3.73 3.55 3.37 3.29 3.27 3.22 3.19 3.05 2.91 2.86 2.85 2.79 2.50 2.18 1.85 1.60 1.51 1.44 1.41 1.42 1.50 1.51 1.51 1.54 1.53 1.51 1.50 1.41 1.44 1.57 1.71 1.78 1.90 2.03 2.13 2.13 2.13 2.20 2.32
3.64 3.29 3.14 3.05 2.91 2.80 2.79 2.81 2.84 2.80 2.79 2.76 2.68 2.57 2.50 2.49 2.35 2.25 1.97 1.75 1.73 1.61 1.49 1.44 1.40 1.45 1.52 1.53 1.51 1.61 1.37 1.24 1.21 1.25 1.38 1.51 1.62 1.73 1.84 1.95 2.09 2.20 2.28
3.01 2.72 2.56 2.51 2.40 2.34 2.34 2.46 2.53 2.46 2.41 2.43 2.41 2.33 2.28 2.22 2.15 2.14 2.16 2.02 1.77 1.52 1.46 1.42 1.34 1.32 1.35 1.45 1.56 1.59 1.28 1.15 1.14 1.19 1.24 1.27 1.38 1.48 1.57 1.65 1.80 1.98 2.05
2.44 2.27 2.16 2.08 1.99 1.91 1.89 2.01 2.13 2.18 2.15 2.18 2.18 2.25 2.19 2.09 2.02 1.96 2.00 2.09 2.02 1.79 1.62 1.52 1.45 1.42 1.42 1.43 1.58 1.57 1.31 1.34 1.22 1.24 1.23 1.18 1.22 1.25 1.28 1.29 1.33 1.45 1.59
1.86 1.73 1.69 1.66 1.60 1.58 1.63 1.76 1.83 1.79 1.81 1.87 1.96 2.06 2.06 2.05 2.03 1.95 1.98 2.05 2.14 2.08 1.90 1.69 1.63 1.55 1.57 1.59 1.71 1.38 1.38 1.55 1.38 1.27 1.19 1.14 1.14 1.09 1.05 1.03 1.02 1.01 1.05
1.53 1.44 1.41 1.42 1.41 1.39 1.43 1.48 1.57 1.59 1.56 1.57 1.68 1.82 1.89 1.92 2.01 2.03 2.10 2.13 2.16 2.17 2.08 1.81 1.70 1.63 1.61 1.54 1.80 1.54 1.51 1.56 1.35 1.20 1.08 1.00 0.98 0.94 0.90 0.91 0.93 0.93 0.92
1.60 1.47 1.36 1.40 1.38 1.34 1.33 1.34 1.34 1.40 1.45 1.45 1.49 1.58 1.67 1.71 1.81 1.85 1.91 1.95 2.05 2.10 2.08 1.90 1.76 1.72 1.68 1.66 1.70 1.57 1.47 1.40 1.29 1.19 1.03 0.94 0.91 0.88 0.87 0.87 0.88 0.88 0.88
1.32 1.25 1.20 1.24 1.23 1.18 1.18 1.16 1.11 1.15 1.21 1.25 1.29 1.34 1.40 1.46 1.54 1.55 1.64 1.72 1.76 1.83 1.87 1.93 1.96 1.87 1.77 1.74 1.65 1.50 1.31 1.16 1.11 1.11 1.00 0.94 0.93 0.93 0.94 0.95 0.94 0.91 0.86
1.23 1.23 1.19 1.16 1.15 1.09 1.03 0.99 0.98 0.97 0.95 0.99 1.06 1.11 1.16 1.23 1.24 1.23 1.28 1.33 1.42 1.52 1.72 1.81 1.83 1.85 1.80 1.80 1.81 1.55 1.36 1.34 1.03 0.98 0.93 0.92 0.92 0.90 0.89 0.87 0.85 0.83 0.81
1.17 1.24 1.19 1.11 1.03 0.96 0.91 0.94 0.97 0.94 0.91 0.91 0.92 0.94 0.95 0.97 0.97 0.99 1.00 1.07 1.19 1.42 1.60 1.67 1.60 1.61 1.67 1.64 1.74 1.65 1.52 1.40 1.21 0.90 0.84 0.78 0.80 0.81 0.79 0.74 0.72 0.71 0.71
1.07 1.13 1.06 1.01 0.95 0.86 0.81 0.82 0.85 0.85 0.85 0.83 0.82 0.81 0.78 0.80 0.83 0.82 0.79 0.89 1.07 1.30 1.43 1.51 1.52 1.45 1.44 1.47 1.50 1.44 1.44 1.43 1.31 1.06 0.97 0.80 0.74 0.77 0.80 0.79 0.75 0.69 0.64
1.11 1.11 1.06 0.96 0.86 0.74 0.76 0.76 0.71 0.74 0.80 0.83 0.80 0.73 0.67 0.68 0.68 0.67 0.69 0.77 0.89 1.02 1.14 1.27 1.32 1.32 1.30 1.30 1.38 1.39 1.40 1.44 1.41 1.19 1.13 1.02 0.85 0.93 0.89 0.82 0.76 0.68 0.66
1.13 1.06 0.97 0.86 0.79 0.75 0.69 0.64 0.69 0.75 0.81 0.85 0.85 0.85 0.72 0.59 0.66 0.69 0.70 0.72 0.77 0.82 0.93 1.09 1.19 1.19 1.20 1.27 1.41 1.42 1.44 1.45 1.41 1.24 1.25 1.24 1.07 1.05 0.84 0.72 0.74 0.67 0.62
1.08 1.04 0.95 0.84 0.76 0.70 0.67 0.64 0.66 0.67 0.77 0.80 0.80 0.82 0.83 0.80 0.74 0.76 0.74 0.76 0.80 0.85 0.89 0.96 1.11 1.14 1.07 1.13 1.29 1.33 1.33 1.31 1.26 1.20 1.25 1.31 1.09 1.00 0.78 0.81 0.75 0.62 0.56
1.02 0.96 0.90 0.85 0.81 0.71 0.65 0.61 0.63 0.69 0.75 0.71 0.65 0.65 0.66 0.67 0.65 0.69 0.75 0.83 0.86 0.86 0.76 0.81 0.86 0.94 1.02 1.06 1.09 1.15 1.25 1.39 1.37 1.25 1.22 1.31 1.19 1.03 0.89 0.92 0.81 0.67 0.61
0.92 0.82 0.80 0.83 0.83 0.78 0.66 0.56 0.58 0.61 0.66 0.65 0.62 0.61 0.59 0.54 0.52 0.50 0.58 0.78 0.92 0.90 0.83 0.82 0.93 1.07 1.14 1.14 1.07 1.14 1.26 1.36 1.37 1.39 1.23 1.25 1.25 1.13 1.06 0.90 0.84 0.82 0.82

GEFSMA_prec_meanprecacc_234.txt.gz
Total_Precipitation_Accumulation
2.19 2.48 2.48 2.60 2.27 2.25 2.30 2.22 2.01 1.91 1.73 1.56 1.47 1.44 1.49 1.42 1.49 1.69 1.69 1.66 1.76 2.10 2.52 2.73 2.70 2.70 2.64 2.55 2.40 2.26 2.07 1.94 1.82 1.68 1.48 1.28 1.20 1.19 1.22 1.24 1.24 1.21 1.21
2.67 3.00 3.08 3.03 2.78 2.80 2.96 2.98 2.78 2.53 2.29 2.15 1.93 1.88 1.82 1.81 1.92 1.95 1.92 1.84 1.72 1.79 2.22 2.64 2.93 3.11 3.08 2.81 2.56 2.44 2.36 2.22 2.06 1.88 1.74 1.59 1.44 1.38 1.36 1.34 1.33 1.28 1.21
3.20 3.32 3.57 3.50 3.27 3.25 3.30 3.26 3.43 3.39 2.89 2.54 2.35 2.29 2.27 2.20 2.24 2.30 2.34 2.25 1.99 1.87 2.00 2.30 2.60 2.81 2.93 2.93 2.79 2.65 2.64 2.40 2.18 2.01 1.89 1.78 1.70 1.62 1.52 1.45 1.45 1.44 1.36
3.53 3.58 3.58 3.60 3.50 3.47 3.75 3.85 3.79 3.72 3.46 3.10 2.85 2.60 2.48 2.53 2.35 2.29 2.32 2.32 2.34 2.03 1.84 1.84 2.01 2.23 2.54 2.85 3.02 3.05 2.92 2.70 2.46 2.26 2.17 2.05 1.90 1.76 1.61 1.52 1.51 1.52 1.48
3.97 4.03 4.00 4.06 3.91 3.95 3.90 3.77 4.08 4.01 3.84 3.49 3.00 2.74 2.50 2.50 2.38 2.10 2.09 2.15 2.21 2.11 2.00 1.81 1.86 2.03 2.35 2.70 3.00 3.20 3.16 3.01 2.82 2.62 2.51 2.39 2.22 2.00 1.80 1.67 1.63 1.61 1.62
4.71 4.67 4.60 4.60 4.46 4.34 4.19 4.14 4.15 3.93 3.77 3.53 2.99 2.75 2.47 2.17 2.12 2.09 1.89 1.93 1.95 1.83 1.91 1.92 1.98 1.85 2.05 2.34 2.65 2.91 3.00 3.07 3.02 2.77 2.57 2.54 2.45 2.23 2.03 1.91 1.84 1.76 1.76
5.12 4.97 4.79 4.87 4.72 4.50 4.26 4.15 4.12 4.00 3.64 3.49 3.45 3.07 2.51 2.13 1.97 1.83 1.82 1.82 1.70 1.71 1.91 1.93 1.92 1.85 1.78 1.98 2.11 2.32 2.63 2.87 3.08 3.06 2.92 2.80 2.56 2.31 2.17 2.09 2.06 2.01 1.92
5.39 5.21 5.18 5.02 4.79 4.62 4.38 4.19 4.11 4.00 3.66 3.57 3.59 3.52 2.84 2.33 1.83 1.46 1.56 1.58 1.54 1.60 1.65 1.62 1.61 1.66 1.70 1.78 1.75 1.94 2.24 2.52 2.83 3.01 3.05 2.83 2.66 2.44 2.34 2.31 2.28 2.25 2.18
5.67 5.50 5.44 5.18 4.94 4.66 4.33 4.07 3.93 3.81 3.68 3.63 3.52 3.62 3.12 2.51 2.02 1.63 1.45 1.35 1.39 1.54 1.55 1.56 1.50 1.45 1.52 1.67 1.75 1.77 1.86 1.90 2.21 2.54 2.70 2.75 2.71 2.56 2.45 2.42 2.40 2.40 2.42
5.08 4.93 4.88 4.70 4.51 4.24 4.00 3.73 3.63 3.56 3.66 3.49 3.41 3.24 2.99 2.64 2.38 2.02 1.70 1.49 1.41 1.43 1.46 1.46 1.44 1.45 1.47 1.58 1.69 1.68 1.64 1.57 1.71 1.97 2.17 2.26 2.32 2.32 2.32 2.33 2.33 2.36 2.43
4.32 4.08 4.01 3.91 3.77 3.58 3.40 3.32 3.32 3.27 3.24 3.09 2.94 2.90 2.89 2.82 2.53 2.21 1.91 1.65 1.55 1.47 1.45 1.46 1.55 1.56 1.55 1.57 1.55 1.53 1.51 1.43 1.45 1.59 1.72 1.80 1.92 2.05 2.14 2.14 2.14 2.22 2.35
3.66 3.31 3.16 3.07 2.94 2.84 2.84 2.86 2.90 2.87 2.87 2.83 2.74 2.63 2.54 2.54 2.39 2.29 2.03 1.81 1.78 1.66 1.55 1.48 1.44 1.49 1.56 1.56 1.53 1.63 1.39 1.26 1.23 1.27 1.39 1.52 1.63 1.75 1.86 1.97 2.11 2.21 2.30
3.03 2.75 2.58 2.53 2.43 2.38 2.38 2.50 2.58 2.52 2.48 2.50 2.48 2.39 2.34 2.28 2.21 2.19 2.24 2.08 1.82 1.59 1.52 1.47 1.37 1.35 1.38 1.48 1.58 1.60 1.29 1.17 1.15 1.20 1.25 1.28 1.39 1.49 1.58 1.66 1.81 1.99 2.07
2.47 2.30 2.18 2.11 2.02 1.94 1.92 2.05 2.17 2.23 2.20 2.23 2.24 2.31 2.24 2.13 2.07 2.01 2.07 2.16 2.08 1.86 1.68 1.57 1.50 1.46 1.46 1.46 1.59 1.58 1.32 1.35 1.24 1.25 1.24 1.20 1.23 1.26 1.28 1.30 1.33 1.46 1.61
1.90 1.78 1.73 1.70 1.64 1.61 1.67 1.80 1.87 1.83 1.85 1.91 2.01 2.12 2.12 2.10 2.08 2.01 2.06 2.14 2.22 2.15 1.95 1.73 1.68 1.59 1.61 1.61 1.72 1.39 1.40 1.57 1.39 1.28 1.21 1.16 1.15 1.09 1.05 1.04 1.02 1.02 1.06
1.59 1.50 1.46 1.46 1.45 1.43 1.47 1.52 1.62 1.64 1.61 1.62 1.75 1.89 1.97 2.00 2.09 2.13 2.21 2.24 2.24 2.24 2.14 1.84 1.74 1.67 1.64 1.57 1.82 1.56 1.53 1.58 1.37 1.21 1.10 1.02 0.98 0.95 0.91 0.91 0.93 0.94 0.93
1.65 1.52 1.42 1.45 1.45 1.40 1.38 1.42 1.41 1.46 1.51 1.52 1.57 1.66 1.76 1.80 1.90 1.94 2.00 2.03 2.12 2.17 2.14 1.94 1.80 1.77 1.73 1.71 1.74 1.59 1.49 1.41 1.31 1.20 1.05 0.95 0.92 0.89 0.87 0.87 0.89 0.89 0.89
1.36 1.30 1.27 1.31 1.30 1.23 1.22 1.20 1.16 1.19 1.26 1.34 1.40 1.45 1.54 1.56 1.62 1.62 1.72 1.78 1.80 1.87 1.92 1.98 2.00 1.93 1.84 1.80 1.71 1.55 1.34 1.17 1.13 1.12 1.01 0.96 0.94 0.94 0.95 0.96 0.94 0.92 0.87
1.28 1.28 1.24 1.21 1.18 1.11 1.05 1.01 1.02 1.02 1.01 1.09 1.18 1.21 1.26 1.30 1.30 1.28 1.35 1.37 1.46 1.56 1.76 1.85 1.87 1.91 1.88 1.87 1.88 1.61 1.42 1.37 1.05 1.00 0.94 0.94 0.94 0.92 0.90 0.88 0.86 0.84 0.81
1.23 1.29 1.22 1.14 1.04 0.98 0.93 0.96 0.98 0.96 0.94 0.96 0.98 1.01 1.00 1.00 1.00 1.02 1.04 1.10 1.23 1.46 1.64 1.70 1.65 1.67 1.72 1.70 1.82 1.73 1.59 1.46 1.24 0.92 0.86 0.79 0.81 0.83 0.82 0.76 0.74 0.72 0.72
1.11 1.17 1.09 1.03 0.97 0.87 0.82 0.84 0.87 0.88 0.87 0.86 0.87 0.87 0.82 0.83 0.87 0.85 0.81 0.91 1.10 1.34 1.46 1.54 1.56 1.51 1.50 1.54 1.57 1.51 1.50 1.49 1.37 1.11 1.01 0.82 0.75 0.79 0.82 0.81 0.77 0.70 0.65
1.12 1.13 1.08 0.98 0.87 0.74 0.77 0.77 0.72 0.75 0.82 0.87 0.85 0.76 0.69 0.70 0.71 0.71 0.72 0.81 0.94 1.05 1.17 1.30 1.36 1.38 1.37 1.38 1.45 1.46 1.48 1.51 1.48 1.25 1.18 1.06 0.88 0.95 0.91 0.84 0.78 0.69 0.67
1.15 1.08 0.98 0.87 0.81 0.76 0.70 0.66 0.70 0.76 0.82 0.88 0.88 0.86 0.73 0.61 0.68 0.73 0.74 0.77 0.82 0.87 0.97 1.13 1.24 1.24 1.28 1.36 1.51 1.51 1.53 1.53 1.48 1.30 1.30 1.28 1.11 1.07 0.87 0.74 0.77 0.70 0.65
1.11 1.06 0.97 0.86 0.78 0.71 0.68 0.66 0.68 0.69 0.79 0.82 0.82 0.83 0.84 0.81 0.77 0.80 0.77 0.79 0.83 0.88 0.93 1.00 1.15 1.19 1.14 1.22 1.39 1.42 1.43 1.41 1.36 1.28 1.31 1.36 1.13 1.03 0.82 0.85 0.79 0.65 0.59
1.04 0.98 0.92 0.88 0.83 0.73 0.67 0.63 0.65 0.71 0.77 0.73 0.66 0.67 0.68 0.68 0.67 0.72 0.79 0.87 0.89 0.89 0.79 0.84 0.90 0.98 1.09 1.14 1.19 1.25 1.35 1.49 1.45 1.33 1.28 1.36 1.23 1.06 0.92 0.96 0.85 0.71 0.64
0.95 0.85 0.83 0.86 0.85 0.80 0.68 0.59 0.61 0.63 0.68 0.67 0.63 0.62 0.61 0.57 0.55 0.53 0.62 0.81 0.95 0.92 0.85 0.85 0.97 1.12 1.19 1.20 1.15 1.23 1.34 1.44 1.44 1.45 1.28 1.29 1.29 1.18 1.12 0.95 0.88 0.86 0.85

GEFSMA_prec_meanprecacc_240.txt.gz
Total_Precipitation_Accumulation
2.22 2.52 2.52 2.64 2.30 2.27 2.33 2.25 2.05 1.95 1.76 1.58 1.50 1.47 1.52 1.44 1.51 1.71 1.71 1.68 1.80 2.14 2.60 2.84 2.82 2.80 2.73 2.62 2.47 2.33 2.14 2.01 1.88 1.72 1.53 1.32 1.23 1.22 1.26 1.30 1.30 1.28 1.31
2.68 3.02 3.12 3.06 2.81 2.82 2.98 3.00 2.80 2.57 2.33 2.18 1.96 1.91 1.86 1.86 1.96 1.98 1.93 1.86 1.75 1.83 2.29 2.72 3.02 3.19 3.16 2.88 2.62 2.51 2.44 2.30 2.13 1.94 1.78 1.63 1.48 1.41 1.39 1.38 1.37 1.33 1.28
3.21 3.34 3.59 3.52 3.30 3.28 3.32 3.27 3.45 3.42 2.94 2.58 2.38 2.32 2.31 2.23 2.29 2.34 2.37 2.27 2.01 1.90 2.05 2.37 2.67 2.88 3.00 3.00 2.87 2.72 2.72 2.48 2.26 2.07 1.94 1.82 1.74 1.65 1.55 1.48 1.48 1.47 1.40
3.55 3.60 3.60 3.63 3.53 3.49 3.78 3.89 3.83 3.76 3.50 3.13 2.88 2.63 2.51 2.56 2.38 2.33 2.36 2.34 2.35 2.04 1.86 1.89 2.07 2.29 2.60 2.93 3.11 3.13 3.00 2.79 2.53 2.32 2.23 2.10 1.94 1.79 1.64 1.55 1.55 1.55 1.51
4.01 4.06 4.02 4.08 3.94 3.99 3.93 3.81 4.12 4.05 3.88 3.52 3.03 2.77 2.52 2.53 2.41 2.15 2.14 2.20 2.23 2.12 2.01 1.83 1.90 2.08 2.41 2.78 3.08 3.28 3.24 3.09 2.89 2.68 2.58 2.46 2.27 2.04 1.84 1.72 1.66 1.64 1.65
4.74 4.71 4.63 4.63 4.48 4.37 4.23 4.16 4.19 3.96 3.81 3.57 3.03 2.78 2.50 2.21 2.15 2.13 1.93 1.97 1.98 1.86 1.92 1.92 2.00 1.88 2.10 2.41 2.71 2.98 3.08 3.14 3.09 2.84 2.63 2.61 2.53 2.31 2.09 1.96 1.87 1.79 1.80
5.17 5.01 4.83 4.91 4.75 4.53 4.30 4.19 4.15 4.03 3.67 3.55 3.51 3.12 2.56 2.18 2.02 1.86 1.85 1.85 1.74 1.75 1.96 1.96 1.93 1.86 1.80 2.02 2.16 2.38 2.69 2.94 3.15 3.12 2.99 2.86 2.62 2.38 2.24 2.14 2.10 2.03 1.94
5.43 5.27 5.24 5.09 4.84 4.67 4.42 4.23 4.15 4.03 3.69 3.62 3.63 3.57 2.89 2.37 1.86 1.49 1.58 1.61 1.57 1.64 1.70 1.66 1.64 1.70 1.74 1.82 1.78 1.99 2.30 2.58 2.89 3.07 3.11 2.87 2.70 2.48 2.40 2.37 2.33 2.28 2.21
5.70 5.54 5.49 5.23 4.99 4.72 4.37 4.11 3.96 3.84 3.71 3.67 3.56 3.67 3.16 2.54 2.04 1.65 1.46 1.36 1.41 1.57 1.58 1.59 1.54 1.50 1.56 1.72 1.80 1.81 1.90 1.94 2.25 2.59 2.75 2.79 2.76 2.60 2.48 2.47 2.46 2.46 2.46
5.11 4.97 4.91 4.73 4.54 4.27 4.03 3.76 3.66 3.59 3.69 3.52 3.45 3.28 3.02 2.66 2.40 2.04 1.71 1.50 1.43 1.44 1.49 1.49 1.47 1.48 1.52 1.62 1.74 1.72 1.68 1.61 1.75 2.01 2.22 2.31 2.37 2.36 2.35 2.35 2.37 2.42 2.48
4.35 4.12 4.04 3.93 3.78 3.60 3.43 3.35 3.35 3.31 3.28 3.13 2.98 2.94 2.93 2.85 2.55 2.24 1.93 1.67 1.58 1.50 1.48 1.49 1.58 1.59 1.59 1.61 1.60 1.57 1.56 1.47 1.49 1.64 1.77 1.84 1.96 2.10 2.18 2.17 2.16 2.24 2.38
3.71 3.35 3.19 3.10 2.97 2.86 2.85 2.88 2.92 2.90 2.90 2.87 2.79 2.67 2.58 2.57 2.42 2.32 2.07 1.84 1.82 1.69 1.58 1.52 1.48 1.53 1.59 1.59 1.57 1.69 1.44 1.30 1.27 1.31 1.45 1.57 1.67 1.79 1.90 2.01 2.14 2.23 2.33
3.10 2.80 2.61 2.55 2.45 2.39 2.40 2.52 2.61 2.55 2.51 2.54 2.52 2.43 2.38 2.31 2.24 2.22 2.27 2.11 1.84 1.61 1.55 1.50 1.39 1.38 1.41 1.53 1.62 1.68 1.37 1.22 1.20 1.25 1.30 1.34 1.42 1.52 1.61 1.69 1.85 2.02 2.10
2.51 2.32 2.20 2.12 2.03 1.95 1.94 2.07 2.19 2.26 2.23 2.26 2.27 2.34 2.27 2.16 2.10 2.04 2.10 2.19 2.10 1.88 1.70 1.59 1.51 1.48 1.49 1.52 1.65 1.65 1.40 1.42 1.29 1.29 1.29 1.25 1.27 1.28 1.31 1.32 1.35 1.48 1.62
1.93 1.79 1.75 1.71 1.65 1.62 1.68 1.82 1.89 1.86 1.88 1.94 2.04 2.15 2.14 2.12 2.10 2.03 2.09 2.17 2.24 2.17 1.96 1.75 1.69 1.62 1.64 1.65 1.77 1.43 1.45 1.63 1.44 1.33 1.24 1.19 1.19 1.13 1.08 1.06 1.03 1.03 1.07
1.61 1.52 1.48 1.47 1.46 1.44 1.48 1.54 1.65 1.68 1.65 1.66 1.78 1.92 2.00 2.02 2.12 2.15 2.23 2.27 2.27 2.27 2.17 1.87 1.76 1.69 1.68 1.61 1.85 1.58 1.56 1.63 1.42 1.25 1.13 1.04 1.01 0.97 0.93 0.93 0.95 0.95 0.94
1.67 1.55 1.44 1.46 1.46 1.42 1.40 1.44 1.43 1.48 1.55 1.57 1.61 1.70 1.80 1.83 1.93 1.98 2.04 2.07 2.16 2.20 2.18 1.97 1.83 1.79 1.76 1.74 1.77 1.61 1.51 1.44 1.34 1.23 1.07 0.98 0.94 0.90 0.89 0.89 0.90 0.90 0.90
1.40 1.34 1.31 1.35 1.33 1.25 1.24 1.22 1.16 1.20 1.28 1.39 1.47 1.51 1.59 1.60 1.65 1.65 1.75 1.81 1.84 1.90 1.95 2.00 2.02 1.95 1.87 1.82 1.74 1.58 1.35 1.19 1.15 1.14 1.03 0.97 0.95 0.95 0.96 0.97 0.96 0.93 0.88
1.35 1.34 1.30 1.27 1.24 1.16 1.08 1.03 1.03 1.03 1.02 1.11 1.22 1.27 1.33 1.33 1.31 1.30 1.37 1.39 1.48 1.58 1.77 1.86 1.88 1.94 1.91 1.90 1.92 1.65 1.44 1.39 1.08 1.02 0.96 0.96 0.95 0.93 0.92 0.90 0.87 0.85 0.82
1.28 1.33 1.27 1.18 1.08 1.01 0.96 0.98 1.01 0.99 0.95 0.97 1.01 1.06 1.08 1.03 1.01 1.03 1.06 1.12 1.25 1.49 1.66 1.72 1.66 1.69 1.77 1.74 1.87 1.76 1.62 1.48 1.27 0.95 0.89 0.82 0.83 0.84 0.83 0.78 0.75 0.73 0.73
1.14 1.20 1.11 1.05 0.98 0.89 0.83 0.85 0.89 0.89 0.88 0.88 0.90 0.92 0.89 0.86 0.88 0.87 0.83 0.93 1.12 1.36 1.48 1.56 1.58 1.54 1.55 1.59 1.63 1.55 1.53 1.52 1.40 1.13 1.03 0.84 0.77 0.80 0.84 0.83 0.79 0.71 0.66
1.16 1.16 1.10 0.99 0.88 0.75 0.78 0.78 0.73 0.76 0.83 0.90 0.88 0.81 0.76 0.74 0.72 0.73 0.74 0.83 0.96 1.08 1.20 1.32 1.38 1.40 1.41 1.43 1.51 1.52 1.52 1.54 1.51 1.28 1.21 1.09 0.90 0.96 0.93 0.85 0.80 0.71 0.69
1.18 1.11 1.00 0.89 0.83 0.78 0.71 0.67 0.71 0.77 0.84 0.91 0.91 0.91 0.77 0.63 0.70 0.74 0.76 0.80 0.86 0.90 0.99 1.15 1.25 1.26 1.31 1.41 1.56 1.56 1.57 1.56 1.50 1.33 1.34 1.32 1.15 1.10 0.89 0.76 0.78 0.71 0.66
1.13 1.08 0.98 0.88 0.80 0.72 0.69 0.67 0.69 0.71 0.81 0.85 0.84 0.86 0.87 0.82 0.78 0.82 0.80 0.82 0.86 0.91 0.97 1.04 1.18 1.21 1.17 1.26 1.45 1.47 1.49 1.46 1.39 1.32 1.36 1.41 1.18 1.08 0.85 0.88 0.82 0.67 0.61
1.07 1.00 0.94 0.89 0.84 0.73 0.68 0.64 0.67 0.74 0.80 0.75 0.68 0.69 0.70 0.70 0.69 0.75 0.81 0.90 0.92 0.92 0.83 0.87 0.92 1.00 1.11 1.17 1.23 1.29 1.41 1.54 1.49 1.37 1.33 1.41 1.29 1.13 0.97 0.99 0.89 0.75 0.68
0.99 0.87 0.85 0.88 0.87 0.81 0.69 0.60 0.63 0.66 0.71 0.68 0.65 0.64 0.63 0.60 0.59 0.57 0.65 0.85 0.98 0.96 0.88 0.88 0.99 1.14 1.21 1.22 1.18 1.26 1.39 1.49 1.47 1.49 1.32 1.34 1.34 1.24 1.18 1.00 0.92 0.90 0.90

GEFSMA_prec_meanprecacc_246.txt.gz
Total_Precipitation_Accumulation
2.27 2.57 2.58 2.72 2.38 2.33 2.40 2.36 2.13 2.00 1.81 1.63 1.53 1.50 1.55 1.47 1.53 1.72 1.72 1.69 1.81 2.16 2.64 2.90 2.87 2.85 2.79 2.70 2.56 2.40 2.21 2.08 1.94 1.76 1.56 1.36 1.27 1.26 1.30 1.33 1.33 1.31 1.34
2.71 3.05 3.16 3.12 2.88 2.90 3.04 3.14 2.91 2.65 2.37 2.23 2.01 1.95 1.90 1.89 1.99 1.99 1.94 1.87 1.76 1.85 2.31 2.77 3.07 3.25 3.22 2.94 2.71 2.58 2.50 2.36 2.19 1.99 1.82 1.66 1.51 1.45 1.43 1.41 1.41 1.36 1.31
3.24 3.37 3.62 3.56 3.34 3.35 3.40 3.38 3.57 3.51 2.99 2.63 2.43 2.36 2.35 2.27 2.32 2.38 2.40 2.29 2.02 1.92 2.07 2.40 2.71 2.93 3.06 3.08 2.95 2.80 2.79 2.54 2.31 2.12 1.98 1.86 1.78 1.68 1.58 1.51 1.52 1.51 1.44
3.59 3.65 3.64 3.66 3.57 3.55 3.86 3.97 3.93 3.82 3.54 3.16 2.92 2.67 2.54 2.60 2.41 2.37 2.39 2.37 2.38 2.05 1.88 1.91 2.10 2.33 2.70 3.05 3.22 3.23 3.11 2.89 2.61 2.38 2.27 2.14 1.97 1.82 1.66 1.57 1.58 1.59 1.54
4.04 4.11 4.06 4.11 3.98 4.03 4.00 3.88 4.22 4.13 3.96 3.56 3.07 2.81 2.57 2.57 2.45 2.19 2.17 2.23 2.26 2.14 2.02 1.84 1.92 2.11 2.47 2.88 3.18 3.37 3.36 3.22 3.01 2.79 2.65 2.50 2.30 2.06 1.86 1.74 1.69 1.67 1.67
4.77 4.74 4.67 4.67 4.52 4.41 4.28 4.22 4.25 4.04 3.92 3.64 3.10 2.84 2.55 2.26 2.20 2.17 1.96 2.01 2.02 1.88 1.94 1.95 2.02 1.90 2.12 2.45 2.77 3.03 3.15 3.24 3.18 2.93 2.71 2.67 2.57 2.34 2.12 2.00 1.91 1.82 1.82
5.20 5.05 4.87 4.95 4.79 4.56 4.33 4.24 4.20 4.08 3.74 3.63 3.59 3.18 2.60 2.23 2.06 1.90 1.89 1.88 1.76 1.77 1.98 1.99 1.96 1.88 1.82 2.04 2.18 2.41 2.73 3.01 3.24 3.22 3.08 2.93 2.67 2.42 2.28 2.18 2.14 2.06 1.96
5.47 5.31 5.28 5.12 4.87 4.70 4.45 4.27 4.20 4.07 3.74 3.68 3.70 3.65 2.95 2.42 1.90 1.51 1.61 1.64 1.59 1.66 1.72 1.68 1.68 1.73 1.77 1.84 1.79 2.00 2.32 2.62 2.95 3.15 3.18 2.94 2.75 2.52 2.43 2.41 2.38 2.32 2.23
5.74 5.57 5.52 5.26 5.02 4.75 4.40 4.13 4.00 3.89 3.76 3.72 3.62 3.74 3.23 2.59 2.08 1.68 1.49 1.39 1.44 1.59 1.59 1.61 1.57 1.54 1.61 1.76 1.83 1.83 1.92 1.96 2.29 2.65 2.81 2.86 2.81 2.64 2.52 2.50 2.50 2.50 2.49
5.14 5.00 4.94 4.77 4.58 4.30 4.06 3.79 3.69 3.62 3.73 3.57 3.50 3.32 3.08 2.71 2.45 2.08 1.74 1.53 1.46 1.47 1.51 1.52 1.50 1.51 1.55 1.67 1.77 1.74 1.69 1.63 1.77 2.05 2.27 2.38 2.44 2.41 2.39 2.38 2.39 2.45 2.51
4.39 4.15 4.07 3.97 3.82 3.63 3.45 3.37 3.37 3.34 3.31 3.16 3.02 2.99 2.97 2.90 2.59 2.28 1.97 1.71 1.61 1.52 1.51 1.52 1.61 1.62 1.61 1.64 1.62 1.60 1.57 1.48 1.50 1.66 1.81 1.89 2.03 2.17 2.23 2.20 2.19 2.27 2.41
3.76 3.40 3.23 3.14 3.00 2.89 2.88 2.90 2.95 2.93 2.93 2.90 2.83 2.71 2.63 2.62 2.45 2.35 2.10 1.86 1.84 1.71 1.61 1.55 1.49 1.54 1.61 1.62 1.59 1.70 1.45 1.32 1.28 1.33 1.46 1.59 1.72 1.86 1.97 2.07 2.19 2.27 2.36
3.17 2.84 2.64 2.59 2.49 2.43 2.42 2.55 2.64 2.59 2.54 2.57 2.56 2.48 2.43 2.35 2.28 2.26 2.31 2.14 1.87 1.63 1.57 1.51 1.40 1.39 1.42 1.54 1.64 1.69 1.38 1.24 1.21 1.26 1.32 1.36 1.45 1.57 1.68 1.76 1.92 2.09 2.16
2.57 2.38 2.25 2.16 2.07 1.99 1.97 2.11 2.24 2.30 2.27 2.31 2.32 2.40 2.33 2.21 2.15 2.09 2.14 2.22 2.13 1.90 1.72 1.61 1.52 1.49 1.50 1.54 1.67 1.67 1.43 1.44 1.30 1.30 1.30 1.26 1.30 1.32 1.37 1.38 1.42 1.55 1.69
1.98 1.84 1.79 1.76 1.69 1.66 1.72 1.86 1.93 1.90 1.92 1.98 2.09 2.20 2.19 2.17 2.16 2.09 2.13 2.21 2.27 2.20 1.99 1.77 1.72 1.64 1.67 1.68 1.80 1.46 1.48 1.65 1.45 1.34 1.25 1.21 1.22 1.16 1.12 1.12 1.10 1.10 1.12
1.64 1.55 1.50 1.51 1.51 1.48 1.52 1.58 1.68 1.71 1.69 1.70 1.83 1.97 2.05 2.08 2.18 2.21 2.30 2.31 2.31 2.31 2.20 1.88 1.78 1.71 1.71 1.64 1.89 1.62 1.59 1.66 1.43 1.26 1.14 1.06 1.03 1.00 0.97 0.99 1.01 1.02 1.01
1.70 1.57 1.47 1.50 1.51 1.45 1.43 1.46 1.45 1.51 1.58 1.61 1.65 1.75 1.85 1.90 2.00 2.04 2.09 2.12 2.21 2.25 2.22 1.99 1.85 1.81 1.79 1.78 1.80 1.66 1.55 1.48 1.38 1.26 1.09 1.00 0.96 0.92 0.91 0.93 0.96 0.96 0.97
1.44 1.38 1.34 1.40 1.38 1.28 1.27 1.24 1.19 1.23 1.31 1.42 1.50 1.56 1.64 1.66 1.73 1.71 1.80 1.86 1.88 1.95 1.98 2.02 2.04 1.97 1.89 1.85 1.78 1.62 1.39 1.23 1.19 1.18 1.05 1.00 0.98 0.98 0.99 1.01 1.00 0.98 0.94
1.38 1.38 1.34 1.32 1.29 1.20 1.12 1.08 1.07 1.07 1.06 1.15 1.26 1.31 1.38 1.39 1.38 1.35 1.41 1.43 1.52 1.62 1.80 1.88 1.90 1.95 1.93 1.93 1.97 1.70 1.48 1.43 1.11 1.05 0.99 0.98 0.99 0.96 0.95 0.94 0.92 0.90 0.87
1.31 1.37 1.31 1.22 1.11 1.05 0.99 1.02 1.05 1.04 1.00 1.01 1.04 1.09 1.11 1.06 1.04 1.06 1.09 1.15 1.29 1.53 1.70 1.75 1.68 1.71 1.79 1.77 1.93 1.82 1.67 1.54 1.31 0.99 0.92 0.85 0.87 0.87 0.85 0.80 0.77 0.75 0.76
1.17 1.23 1.15 1.08 1.02 0.92 0.86 0.89 0.93 0.93 0.92 0.92 0.94 0.94 0.92 0.89 0.90 0.88 0.85 0.96 1.15 1.40 1.52 1.59 1.60 1.56 1.56 1.62 1.69 1.61 1.59 1.58 1.45 1.18 1.07 0.88 0.80 0.83 0.87 0.85 0.81 0.73 0.67
1.19 1.19 1.13 1.02 0.91 0.77 0.80 0.81 0.76 0.79 0.86 0.93 0.91 0.84 0.79 0.76 0.74 0.75 0.76 0.85 0.98 1.10 1.22 1.35 1.40 1.42 1.43 1.48 1.59 1.59 1.58 1.60 1.57 1.33 1.26 1.14 0.94 1.00 0.96 0.88 0.82 0.73 0.70
1.21 1.14 1.03 0.92 0.85 0.80 0.74 0.69 0.74 0.81 0.88 0.96 0.97 0.96 0.81 0.66 0.72 0.76 0.79 0.84 0.89 0.92 1.01 1.18 1.28 1.28 1.35 1.48 1.65 1.64 1.64 1.62 1.56 1.38 1.40 1.37 1.19 1.15 0.92 0.79 0.80 0.73 0.68
1.17 1.12 1.03 0.92 0.84 0.75 0.72 0.70 0.73 0.76 0.87 0.91 0.91 0.92 0.92 0.86 0.80 0.84 0.83 0.86 0.90 0.94 0.99 1.06 1.21 1.24 1.21 1.33 1.54 1.55 1.55 1.51 1.44 1.36 1.41 1.47 1.23 1.13 0.89 0.92 0.85 0.69 0.62
1.10 1.03 0.97 0.93 0.87 0.76 0.70 0.67 0.71 0.79 0.86 0.81 0.74 0.73 0.72 0.72 0.72 0.78 0.85 0.93 0.95 0.95 0.85 0.89 0.94 1.02 1.14 1.22 1.30 1.35 1.46 1.59 1.54 1.42 1.37 1.46 1.34 1.19 1.03 1.05 0.93 0.77 0.70
1.01 0.90 0.87 0.91 0.89 0.83 0.71 0.63 0.68 0.71 0.76 0.73 0.70 0.68 0.66 0.63 0.61 0.60 0.70 0.89 1.01 0.98 0.91 0.90 1.01 1.16 1.23 1.26 1.23 1.31 1.43 1.53 1.52 1.55 1.37 1.39 1.39 1.29 1.24 1.06 0.97 0.93 0.92

GEFSMA_prec_meanprecacc_252.txt.gz
Total_Precipitation_Accumulation
2.31 2.60 2.62 2.76 2.41 2.38 2.46 2.41 2.18 2.05 1.87 1.68 1.57 1.53 1.58 1.57 1.62 1.80 1.78 1.72 1.83 2.18 2.66 2.92 2.90 2.89 2.84 2.76 2.61 2.44 2.25 2.13 1.98 1.79 1.59 1.38 1.30 1.30 1.33 1.37 1.37 1.35 1.38
2.74 3.08 3.20 3.18 2.93 2.96 3.14 3.21 2.98 2.70 2.43 2.31 2.08 2.00 1.95 1.97 2.09 2.11 2.03 1.91 1.78 1.86 2.33 2.78 3.09 3.27 3.25 2.99 2.76 2.62 2.53 2.40 2.24 2.04 1.86 1.68 1.53 1.47 1.46 1.45 1.44 1.39 1.34
3.29 3.41 3.68 3.62 3.40 3.41 3.46 3.45 3.66 3.60 3.06 2.71 2.52 2.46 2.41 2.35 2.41 2.51 2.56 2.36 2.05 1.94 2.09 2.42 2.73 2.95 3.08 3.11 3.00 2.84 2.82 2.57 2.35 2.17 2.02 1.89 1.80 1.70 1.61 1.54 1.55 1.54 1.46
3.63 3.69 3.69 3.72 3.64 3.63 3.94 4.05 4.01 3.91 3.63 3.24 3.01 2.77 2.63 2.67 2.48 2.46 2.56 2.46 2.42 2.07 1.90 1.93 2.12 2.35 2.72 3.07 3.25 3.27 3.15 2.92 2.64 2.41 2.31 2.17 2.01 1.84 1.68 1.59 1.60 1.62 1.57
4.08 4.15 4.12 4.19 4.06 4.11 4.09 3.94 4.31 4.22 4.04 3.64 3.15 2.90 2.64 2.63 2.51 2.24 2.27 2.31 2.32 2.17 2.04 1.86 1.94 2.13 2.48 2.89 3.20 3.41 3.41 3.27 3.07 2.84 2.70 2.57 2.35 2.10 1.89 1.75 1.70 1.69 1.70
4.82 4.79 4.73 4.73 4.58 4.47 4.35 4.29 4.33 4.13 3.99 3.70 3.17 2.92 2.61 2.31 2.24 2.22 2.02 2.09 2.08 1.91 1.98 1.97 2.03 1.91 2.14 2.47 2.79 3.08 3.20 3.30 3.26 3.01 2.80 2.77 2.66 2.40 2.16 2.02 1.92 1.84 1.85
5.25 5.09 4.91 5.01 4.84 4.61 4.37 4.28 4.25 4.14 3.80 3.69 3.67 3.28 2.69 2.31 2.12 1.95 1.94 1.95 1.81 1.82 2.06 2.04 1.99 1.90 1.83 2.05 2.20 2.44 2.77 3.07 3.31 3.30 3.16 3.01 2.74 2.48 2.31 2.20 2.16 2.08 1.98
5.52 5.35 5.33 5.15 4.91 4.74 4.48 4.30 4.24 4.13 3.79 3.74 3.78 3.74 3.04 2.53 1.98 1.56 1.65 1.69 1.64 1.71 1.79 1.74 1.72 1.77 1.79 1.86 1.81 2.02 2.35 2.66 3.01 3.22 3.24 2.99 2.79 2.56 2.46 2.43 2.40 2.34 2.25
5.79 5.64 5.58 5.31 5.07 4.80 4.44 4.17 4.04 3.95 3.81 3.78 3.69 3.82 3.30 2.65 2.14 1.74 1.54 1.44 1.49 1.63 1.63 1.65 1.62 1.59 1.64 1.79 1.85 1.85 1.94 1.99 2.33 2.70 2.86 2.90 2.86 2.67 2.54 2.52 2.52 2.52 2.51
5.21 5.06 5.00 4.82 4.63 4.35 4.11 3.83 3.73 3.68 3.79 3.63 3.57 3.39 3.14 2.77 2.52 2.15 1.82 1.59 1.52 1.52 1.54 1.55 1.54 1.55 1.59 1.70 1.81 1.78 1.71 1.65 1.80 2.08 2.30 2.41 2.48 2.46 2.42 2.42 2.43 2.48 2.54
4.46 4.21 4.11 4.02 3.88 3.68 3.51 3.42 3.43 3.39 3.36 3.22 3.08 3.06 3.06 2.98 2.67 2.36 2.05 1.79 1.68 1.58 1.55 1.57 1.67 1.67 1.64 1.66 1.66 1.63 1.59 1.50 1.52 1.68 1.82 1.91 2.05 2.20 2.27 2.25 2.22 2.30 2.44
3.84 3.47 3.30 3.21 3.07 2.96 2.95 2.96 3.00 2.97 2.98 2.97 2.89 2.78 2.70 2.68 2.52 2.43 2.18 1.95 1.93 1.77 1.66 1.60 1.54 1.60 1.65 1.65 1.62 1.73 1.46 1.33 1.30 1.34 1.48 1.61 1.73 1.88 2.00 2.12 2.24 2.31 2.40
3.24 2.91 2.71 2.66 2.57 2.52 2.50 2.61 2.69 2.63 2.59 2.62 2.60 2.53 2.48 2.40 2.33 2.33 2.38 2.21 1.94 1.70 1.64 1.56 1.44 1.43 1.45 1.57 1.66 1.71 1.39 1.25 1.22 1.27 1.33 1.37 1.47 1.59 1.70 1.80 1.97 2.15 2.20
2.62 2.43 2.31 2.23 2.13 2.05 2.04 2.18 2.30 2.36 2.33 2.36 2.36 2.46 2.38 2.25 2.20 2.15 2.20 2.29 2.20 1.97 1.79 1.66 1.55 1.52 1.53 1.56 1.68 1.68 1.43 1.44 1.31 1.31 1.31 1.28 1.32 1.34 1.39 1.41 1.44 1.59 1.74
2.02 1.89 1.85 1.82 1.76 1.72 1.78 1.93 2.01 1.97 1.99 2.04 2.14 2.25 2.24 2.22 2.22 2.14 2.19 2.27 2.35 2.26 2.05 1.82 1.75 1.66 1.69 1.70 1.81 1.48 1.49 1.66 1.46 1.35 1.26 1.22 1.23 1.17 1.14 1.13 1.11 1.12 1.17
1.69 1.59 1.56 1.56 1.57 1.54 1.59 1.65 1.75 1.78 1.75 1.75 1.88 2.03 2.10 2.12 2.23 2.27 2.36 2.38 2.37 2.37 2.25 1.92 1.82 1.74 1.73 1.66 1.90 1.64 1.60 1.67 1.44 1.27 1.14 1.06 1.03 1.01 0.98 1.00 1.03 1.04 1.04
1.76 1.63 1.52 1.56 1.57 1.50 1.48 1.51 1.50 1.55 1.64 1.67 1.71 1.82 1.91 1.96 2.07 2.10 2.16 2.19 2.28 2.32 2.28 2.04 1.89 1.85 1.84 1.82 1.83 1.69 1.58 1.51 1.40 1.27 1.10 1.00 0.96 0.93 0.92 0.95 0.98 0.98 1.01
1.50 1.44 1.40 1.45 1.44 1.33 1.31 1.28 1.23 1.28 1.37 1.48 1.56 1.64 1.72 1.74 1.81 1.79 1.88 1.94 1.96 2.02 2.05 2.08 2.09 2.02 1.96 1.90 1.82 1.65 1.41 1.24 1.21 1.19 1.06 1.01 0.99 0.98 1.00 1.03 1.03 1.01 0.98
1.44 1.43 1.39 1.37 1.34 1.25 1.17 1.13 1.14 1.14 1.12 1.20 1.32 1.38 1.45 1.46 1.44 1.41 1.47 1.49 1.59 1.69 1.88 1.94 1.94 2.00 1.98 1.97 2.01 1.73 1.50 1.46 1.12 1.06 0.99 0.99 0.99 0.97 0.96 0.95 0.94 0.92 0.90
1.35 1.41 1.36 1.27 1.17 1.09 1.04 1.08 1.13 1.12 1.07 1.08 1.10 1.14 1.16 1.11 1.08 1.11 1.14 1.20 1.34 1.59 1.76 1.81 1.73 1.75 1.83 1.81 1.98 1.87 1.71 1.58 1.34 1.00 0.93 0.86 0.88 0.88 0.86 0.81 0.79 0.77 0.77
1.20 1.27 1.20 1.14 1.07 0.97 0.91 0.95 1.01 1.01 1.01 0.99 1.00 1.00 0.96 0.93 0.95 0.93 0.88 0.99 1.19 1.45 1.57 1.64 1.65 1.61 1.60 1.66 1.73 1.65 1.64 1.63 1.50 1.21 1.10 0.90 0.82 0.85 0.88 0.86 0.82 0.75 0.69
1.22 1.23 1.18 1.07 0.95 0.81 0.83 0.84 0.81 0.86 0.96 1.01 0.97 0.89 0.84 0.81 0.79 0.79 0.80 0.89 1.02 1.15 1.27 1.40 1.45 1.47 1.47 1.51 1.63 1.63 1.62 1.65 1.62 1.37 1.31 1.18 0.96 1.03 0.98 0.90 0.83 0.74 0.72
1.25 1.19 1.10 0.98 0.90 0.84 0.77 0.72 0.76 0.85 0.94 1.01 1.02 1.02 0.87 0.70 0.77 0.81 0.83 0.87 0.92 0.96 1.06 1.23 1.33 1.33 1.40 1.52 1.70 1.68 1.68 1.66 1.59 1.43 1.46 1.42 1.24 1.20 0.96 0.82 0.83 0.75 0.70
1.22 1.18 1.08 0.97 0.89 0.79 0.76 0.73 0.76 0.80 0.92 0.96 0.96 0.98 0.99 0.92 0.86 0.89 0.87 0.90 0.93 0.98 1.04 1.11 1.26 1.29 1.25 1.37 1.58 1.58 1.59 1.57 1.49 1.41 1.47 1.52 1.28 1.19 0.93 0.97 0.89 0.72 0.65
1.13 1.08 1.02 0.98 0.93 0.81 0.74 0.70 0.75 0.85 0.92 0.88 0.81 0.80 0.79 0.79 0.77 0.83 0.90 0.97 0.99 0.99 0.89 0.94 0.99 1.08 1.19 1.28 1.35 1.40 1.51 1.66 1.59 1.46 1.43 1.52 1.39 1.24 1.08 1.10 0.98 0.81 0.73
1.05 0.93 0.90 0.95 0.93 0.88 0.75 0.65 0.70 0.74 0.80 0.79 0.76 0.73 0.72 0.68 0.65 0.63 0.73 0.92 1.05 1.01 0.95 0.95 1.07 1.22 1.30 1.35 1.31 1.37 1.50 1.60 1.58 1.60 1.42 1.45 1.43 1.35 1.30 1.12 1.01 0.97 0.95

GEFSMA_prec_meanprecacc_258.txt.gz
Total_Precipitation_Accumulation
2.32 2.63 2.63 2.80 2.46 2.42 2.50 2.44 2.22 2.09 1.90 1.72 1.62 1.57 1.64 1.64 1.70 1.86 1.84 1.78 1.89 2.24 2.72 2.97 2.94 2.94 2.91 2.83 2.65 2.47 2.28 2.15 2.00 1.82 1.62 1.41 1.32 1.32 1.35 1.39 1.39 1.37 1.41
2.75 3.10 3.23 3.21 2.98 3.02 3.21 3.25 3.02 2.73 2.46 2.36 2.13 2.06 2.01 2.04 2.16 2.18 2.09 1.97 1.85 1.93 2.39 2.84 3.14 3.32 3.30 3.06 2.81 2.65 2.56 2.42 2.26 2.07 1.88 1.71 1.56 1.49 1.48 1.47 1.46 1.42 1.36
3.30 3.42 3.72 3.68 3.45 3.46 3.51 3.49 3.70 3.63 3.10 2.75 2.57 2.52 2.49 2.42 2.56 2.67 2.69 2.45 2.12 2.02 2.16 2.48 2.79 3.00 3.13 3.17 3.06 2.87 2.85 2.59 2.37 2.18 2.04 1.92 1.83 1.72 1.63 1.56 1.57 1.57 1.49
3.65 3.71 3.73 3.81 3.71 3.68 3.98 4.10 4.06 3.95 3.67 3.29 3.08 2.85 2.71 2.77 2.62 2.63 2.70 2.59 2.50 2.15 1.99 2.00 2.17 2.39 2.77 3.13 3.31 3.32 3.18 2.95 2.67 2.43 2.33 2.20 2.04 1.87 1.71 1.61 1.62 1.64 1.59
4.10 4.19 4.15 4.26 4.10 4.15 4.12 4.00 4.36 4.26 4.09 3.69 3.21 2.98 2.70 2.70 2.63 2.34 2.36 2.41 2.39 2.25 2.12 1.91 1.98 2.16 2.52 2.94 3.25 3.46 3.45 3.30 3.09 2.86 2.72 2.59 2.39 2.13 1.91 1.78 1.73 1.72 1.73
4.84 4.84 4.80 4.79 4.63 4.50 4.38 4.33 4.38 4.18 4.05 3.77 3.23 2.98 2.66 2.34 2.30 2.31 2.08 2.16 2.15 1.98 2.05 2.03 2.07 1.94 2.17 2.51 2.84 3.12 3.25 3.35 3.30 3.04 2.83 2.80 2.69 2.44 2.20 2.06 1.95 1.86 1.87
5.27 5.11 4.95 5.05 4.88 4.64 4.40 4.32 4.29 4.19 3.87 3.77 3.75 3.34 2.73 2.35 2.16 2.00 2.00 2.03 1.88 1.89 2.14 2.11 2.05 1.95 1.87 2.09 2.24 2.49 2.83 3.11 3.36 3.34 3.20 3.05 2.78 2.52 2.36 2.25 2.20 2.11 2.00
5.54 5.38 5.36 5.18 4.94 4.77 4.50 4.33 4.27 4.16 3.83 3.79 3.83 3.79 3.08 2.56 2.02 1.60 1.70 1.75 1.70 1.76 1.86 1.81 1.77 1.82 1.84 1.91 1.85 2.06 2.40 2.71 3.07 3.27 3.30 3.04 2.83 2.60 2.51 2.48 2.45 2.38 2.27
5.81 5.67 5.64 5.38 5.12 4.84 4.48 4.22 4.09 3.98 3.84 3.82 3.73 3.87 3.33 2.68 2.17 1.77 1.57 1.48 1.54 1.68 1.68 1.72 1.67 1.66 1.74 1.87 1.91 1.89 1.97 2.03 2.38 2.76 2.92 2.96 2.91 2.71 2.59 2.57 2.58 2.58 2.56
5.25 5.12 5.07 4.91 4.71 4.41 4.16 3.86 3.76 3.71 3.83 3.67 3.60 3.43 3.17 2.79 2.55 2.19 1.84 1.62 1.55 1.56 1.58 1.59 1.59 1.62 1.70 1.79 1.88 1.83 1.74 1.68 1.84 2.13 2.35 2.46 2.53 2.50 2.46 2.46 2.47 2.54 2.60
4.51 4.26 4.18 4.09 3.94 3.74 3.55 3.46 3.46 3.41 3.39 3.25 3.12 3.10 3.10 3.02 2.72 2.40 2.08 1.82 1.72 1.62 1.60 1.62 1.73 1.74 1.71 1.71 1.69 1.65 1.61 1.52 1.55 1.71 1.85 1.93 2.08 2.23 2.30 2.28 2.26 2.35 2.49
3.88 3.52 3.36 3.26 3.12 3.01 2.99 3.00 3.04 3.02 3.02 3.00 2.93 2.82 2.75 2.73 2.56 2.47 2.21 1.97 1.95 1.81 1.72 1.65 1.61 1.66 1.69 1.68 1.64 1.75 1.48 1.35 1.32 1.36 1.50 1.62 1.74 1.90 2.02 2.14 2.26 2.34 2.44
3.28 2.95 2.74 2.68 2.60 2.56 2.57 2.68 2.77 2.71 2.65 2.66 2.64 2.57 2.51 2.44 2.37 2.36 2.41 2.22 1.96 1.73 1.68 1.61 1.49 1.50 1.49 1.61 1.69 1.72 1.40 1.26 1.24 1.30 1.36 1.39 1.48 1.59 1.71 1.82 1.98 2.17 2.23
2.65 2.47 2.34 2.25 2.16 2.08 2.07 2.22 2.36 2.43 2.38 2.40 2.39 2.48 2.40 2.27 2.23 2.19 2.24 2.32 2.23 2.00 1.82 1.70 1.58 1.56 1.56 1.60 1.71 1.70 1.44 1.46 1.32 1.34 1.34 1.30 1.33 1.36 1.40 1.42 1.46 1.60 1.76
2.06 1.92 1.88 1.85 1.79 1.75 1.82 1.98 2.05 2.01 2.03 2.08 2.18 2.28 2.26 2.24 2.24 2.16 2.22 2.30 2.37 2.28 2.06 1.84 1.78 1.68 1.71 1.73 1.84 1.49 1.50 1.68 1.48 1.37 1.29 1.25 1.25 1.19 1.16 1.16 1.14 1.15 1.18
1.72 1.62 1.58 1.59 1.61 1.59 1.63 1.70 1.79 1.81 1.79 1.79 1.91 2.07 2.13 2.15 2.26 2.30 2.39 2.40 2.40 2.39 2.26 1.94 1.84 1.76 1.75 1.67 1.92 1.65 1.61 1.68 1.46 1.29 1.17 1.09 1.05 1.01 0.99 1.01 1.04 1.06 1.06
1.80 1.66 1.56 1.60 1.62 1.55 1.53 1.56 1.53 1.58 1.67 1.70 1.74 1.84 1.94 1.99 2.09 2.12 2.19 2.22 2.31 2.35 2.30 2.05 1.91 1.89 1.87 1.84 1.85 1.71 1.61 1.53 1.41 1.29 1.12 1.02 0.97 0.94 0.93 0.95 0.98 0.99 1.02
1.55 1.48 1.45 1.50 1.48 1.36 1.35 1.33 1.27 1.31 1.41 1.51 1.59 1.66 1.74 1.76 1.83 1.81 1.90 1.96 1.99 2.04 2.07 2.10 2.11 2.05 1.99 1.93 1.85 1.68 1.43 1.26 1.22 1.19 1.07 1.01 0.99 0.99 1.00 1.03 1.03 1.02 0.98
1.50 1.49 1.45 1.42 1.39 1.29 1.21 1.17 1.18 1.18 1.16 1.25 1.36 1.42 1.48 1.49 1.47 1.44 1.50 1.51 1.61 1.72 1.91 1.97 1.96 2.01 2.00 2.00 2.05 1.76 1.52 1.47 1.13 1.06 1.00 0.99 0.99 0.97 0.96 0.95 0.94 0.93 0.91
1.40 1.46 1.41 1.32 1.21 1.13 1.08 1.12 1.17 1.16 1.11 1.12 1.15 1.19 1.21 1.16 1.12 1.15 1.17 1.22 1.36 1.62 1.80 1.85 1.76 1.77 1.85 1.84 2.01 1.89 1.73 1.60 1.35 1.01 0.94 0.86 0.88 0.89 0.87 0.81 0.79 0.77 0.78
1.25 1.32 1.26 1.20 1.12 1.02 0.95 0.99 1.05 1.06 1.06 1.03 1.03 1.03 0.99 0.97 0.99 0.97 0.92 1.03 1.23 1.48 1.61 1.68 1.68 1.63 1.62 1.68 1.75 1.67 1.65 1.64 1.51 1.22 1.11 0.90 0.82 0.85 0.88 0.87 0.83 0.75 0.69
1.25 1.27 1.23 1.12 0.99 0.85 0.87 0.89 0.85 0.90 1.00 1.06 1.03 0.94 0.89 0.85 0.83 0.84 0.85 0.94 1.06 1.19 1.31 1.44 1.49 1.50 1.50 1.54 1.66 1.65 1.64 1.66 1.63 1.38 1.32 1.18 0.97 1.03 0.99 0.90 0.84 0.75 0.73
1.29 1.22 1.13 1.02 0.93 0.86 0.80 0.76 0.79 0.87 0.96 1.04 1.06 1.07 0.92 0.76 0.83 0.87 0.89 0.95 0.99 1.03 1.12 1.29 1.38 1.37 1.43 1.55 1.73 1.70 1.70 1.67 1.60 1.43 1.47 1.43 1.25 1.20 0.97 0.83 0.84 0.76 0.71
1.25 1.21 1.11 1.00 0.91 0.81 0.78 0.77 0.79 0.81 0.93 0.98 0.98 1.00 1.01 0.95 0.90 0.94 0.93 0.95 0.98 1.04 1.10 1.18 1.32 1.34 1.29 1.41 1.61 1.62 1.62 1.59 1.50 1.42 1.48 1.53 1.29 1.20 0.94 0.98 0.90 0.74 0.67
1.15 1.09 1.03 1.00 0.95 0.83 0.76 0.72 0.77 0.85 0.93 0.89 0.83 0.82 0.82 0.82 0.82 0.90 0.98 1.06 1.07 1.06 0.95 1.01 1.07 1.14 1.24 1.32 1.39 1.44 1.56 1.70 1.63 1.47 1.44 1.53 1.40 1.26 1.09 1.12 0.99 0.83 0.75
1.06 0.94 0.91 0.96 0.95 0.89 0.76 0.68 0.72 0.75 0.81 0.80 0.78 0.75 0.74 0.69 0.67 0.66 0.77 0.97 1.09 1.05 0.99 1.00 1.12 1.27 1.35 1.39 1.36 1.41 1.54 1.64 1.62 1.62 1.43 1.46 1.45 1.36 1.32 1.13 1.03 0.99 0.98

GEFSMA_prec_meanprecacc_264.txt.gz
Total_Precipitation_Accumulation
2.35 2.65 2.65 2.81 2.48 2.44 2.52 2.46 2.26 2.15 1.95 1.76 1.66 1.60 1.66 1.66 1.71 1.89 1.87 1.81 1.93 2.28 2.76 3.03 3.02 3.01 2.98 2.89 2.70 2.52 2.32 2.19 2.04 1.87 1.66 1.44 1.34 1.34 1.37 1.41 1.41 1.40 1.43
2.77 3.12 3.24 3.23 2.99 3.04 3.22 3.26 3.03 2.76 2.50 2.40 2.17 2.09 2.04 2.05 2.17 2.19 2.11 2.00 1.89 1.96 2.45 2.91 3.21 3.40 3.39 3.14 2.87 2.70 2.60 2.45 2.29 2.10 1.92 1.75 1.60 1.52 1.50 1.48 1.48 1.44 1.38
3.31 3.44 3.74 3.70 3.47 3.49 3.52 3.50 3.72 3.65 3.13 2.78 2.61 2.55 2.52 2.44 2.58 2.69 2.71 2.47 2.15 2.06 2.22 2.55 2.86 3.08 3.21 3.26 3.13 2.93 2.89 2.63 2.40 2.21 2.07 1.96 1.87 1.77 1.66 1.59 1.59 1.59 1.51
3.66 3.72 3.75 3.83 3.73 3.73 4.01 4.12 4.08 3.97 3.69 3.31 3.10 2.89 2.74 2.80 2.66 2.65 2.72 2.60 2.52 2.18 2.03 2.05 2.22 2.45 2.83 3.20 3.39 3.38 3.24 3.00 2.71 2.48 2.38 2.25 2.09 1.91 1.76 1.66 1.65 1.67 1.62
4.12 4.20 4.17 4.28 4.14 4.19 4.16 4.04 4.39 4.28 4.11 3.71 3.24 3.02 2.75 2.74 2.67 2.38 2.40 2.43 2.41 2.27 2.15 1.97 2.03 2.21 2.56 2.99 3.32 3.53 3.51 3.37 3.15 2.92 2.78 2.64 2.43 2.17 1.95 1.81 1.77 1.76 1.76
4.85 4.87 4.82 4.82 4.67 4.54 4.43 4.39 4.42 4.21 4.08 3.80 3.29 3.04 2.71 2.40 2.35 2.34 2.11 2.19 2.17 2.00 2.08 2.08 2.13 1.99 2.21 2.55 2.90 3.19 3.32 3.41 3.36 3.10 2.87 2.84 2.74 2.48 2.24 2.09 1.98 1.90 1.90
5.31 5.14 4.99 5.09 4.94 4.69 4.45 4.38 4.35 4.25 3.92 3.83 3.82 3.41 2.79 2.39 2.19 2.02 2.01 2.05 1.90 1.90 2.17 2.16 2.09 1.99 1.90 2.12 2.30 2.56 2.90 3.18 3.43 3.40 3.25 3.10 2.82 2.55 2.39 2.29 2.24 2.14 2.04
5.57 5.40 5.38 5.22 4.99 4.83 4.56 4.37 4.33 4.23 3.89 3.85 3.89 3.85 3.12 2.60 2.05 1.61 1.70 1.76 1.72 1.78 1.89 1.84 1.81 1.86 1.87 1.93 1.87 2.12 2.46 2.78 3.15 3.35 3.36 3.10 2.88 2.63 2.54 2.51 2.48 2.42 2.32
5.84 5.69 5.66 5.40 5.16 4.89 4.54 4.27 4.13 4.03 3.89 3.86 3.77 3.90 3.36 2.70 2.20 1.78 1.57 1.49 1.55 1.70 1.70 1.75 1.71 1.70 1.77 1.90 1.94 1.93 2.02 2.08 2.44 2.83 2.99 3.03 2.96 2.75 2.62 2.60 2.61 2.63 2.61
5.27 5.14 5.09 4.94 4.75 4.45 4.20 3.91 3.80 3.74 3.85 3.70 3.64 3.46 3.20 2.81 2.57 2.20 1.85 1.63 1.56 1.58 1.61 1.62 1.62 1.66 1.73 1.82 1.91 1.87 1.78 1.71 1.89 2.19 2.42 2.53 2.59 2.55 2.50 2.49 2.51 2.59 2.65
4.52 4.28 4.20 4.12 3.98 3.78 3.59 3.50 3.51 3.45 3.41 3.27 3.14 3.13 3.13 3.05 2.74 2.41 2.10 1.83 1.74 1.63 1.62 1.64 1.76 1.77 1.74 1.75 1.72 1.68 1.64 1.55 1.58 1.76 1.92 2.01 2.17 2.31 2.34 2.31 2.29 2.38 2.53
3.90 3.54 3.38 3.29 3.15 3.04 3.04 3.05 3.10 3.07 3.08 3.04 2.96 2.85 2.79 2.77 2.59 2.49 2.22 1.98 1.97 1.83 1.73 1.67 1.63 1.68 1.72 1.72 1.67 1.77 1.50 1.37 1.33 1.38 1.53 1.68 1.82 1.98 2.07 2.17 2.29 2.37 2.46
3.31 2.98 2.77 2.71 2.64 2.60 2.60 2.72 2.81 2.75 2.69 2.71 2.68 2.61 2.56 2.49 2.41 2.40 2.43 2.23 1.97 1.74 1.69 1.63 1.50 1.52 1.52 1.63 1.71 1.75 1.41 1.27 1.25 1.32 1.40 1.45 1.53 1.65 1.76 1.86 2.02 2.20 2.26
2.70 2.50 2.37 2.28 2.20 2.12 2.11 2.26 2.40 2.47 2.43 2.45 2.44 2.52 2.44 2.31 2.28 2.25 2.28 2.34 2.24 2.01 1.83 1.70 1.59 1.57 1.58 1.61 1.73 1.72 1.46 1.47 1.33 1.36 1.38 1.35 1.37 1.39 1.43 1.46 1.50 1.64 1.78
2.10 1.97 1.93 1.89 1.84 1.80 1.86 2.02 2.09 2.06 2.08 2.14 2.23 2.33 2.30 2.27 2.27 2.21 2.27 2.34 2.40 2.30 2.07 1.84 1.78 1.69 1.72 1.74 1.86 1.51 1.51 1.69 1.50 1.39 1.32 1.28 1.28 1.21 1.18 1.18 1.18 1.18 1.22
1.78 1.68 1.64 1.65 1.67 1.63 1.67 1.73 1.82 1.85 1.83 1.83 1.96 2.11 2.16 2.18 2.28 2.32 2.41 2.44 2.43 2.42 2.28 1.95 1.85 1.76 1.76 1.68 1.95 1.67 1.63 1.70 1.48 1.31 1.20 1.12 1.08 1.04 1.02 1.04 1.07 1.10 1.10
1.87 1.73 1.62 1.67 1.68 1.60 1.57 1.60 1.58 1.63 1.72 1.74 1.77 1.87 1.96 2.01 2.11 2.15 2.22 2.25 2.33 2.37 2.31 2.06 1.92 1.90 1.88 1.85 1.87 1.73 1.63 1.55 1.43 1.31 1.14 1.04 1.00 0.96 0.95 0.97 0.99 1.00 1.03
1.63 1.55 1.51 1.57 1.54 1.42 1.41 1.38 1.32 1.36 1.46 1.56 1.63 1.70 1.77 1.78 1.85 1.83 1.92 1.99 2.02 2.08 2.10 2.12 2.12 2.07 2.01 1.95 1.86 1.70 1.46 1.28 1.24 1.21 1.08 1.03 1.01 1.00 1.01 1.04 1.03 1.02 0.99
1.55 1.54 1.49 1.46 1.44 1.34 1.28 1.24 1.24 1.23 1.21 1.29 1.40 1.45 1.51 1.52 1.50 1.46 1.52 1.54 1.64 1.75 1.94 2.00 1.98 2.04 2.02 2.02 2.07 1.78 1.53 1.48 1.15 1.08 1.01 1.00 1.00 0.97 0.97 0.96 0.94 0.93 0.91
1.45 1.51 1.45 1.37 1.28 1.20 1.14 1.17 1.21 1.21 1.16 1.17 1.18 1.22 1.24 1.18 1.15 1.18 1.20 1.25 1.40 1.66 1.83 1.88 1.78 1.80 1.87 1.86 2.02 1.90 1.74 1.61 1.36 1.03 0.96 0.88 0.89 0.89 0.87 0.82 0.79 0.77 0.78
1.29 1.37 1.32 1.27 1.19 1.08 1.02 1.05 1.11 1.11 1.10 1.06 1.06 1.06 1.02 0.99 1.02 1.00 0.95 1.06 1.27 1.52 1.64 1.71 1.70 1.65 1.65 1.71 1.77 1.68 1.67 1.65 1.53 1.23 1.13 0.91 0.83 0.86 0.89 0.87 0.83 0.76 0.70
1.28 1.30 1.27 1.18 1.04 0.88 0.90 0.91 0.88 0.92 1.03 1.09 1.05 0.96 0.91 0.87 0.86 0.87 0.88 0.96 1.09 1.21 1.33 1.46 1.51 1.52 1.52 1.56 1.67 1.67 1.66 1.69 1.65 1.40 1.34 1.19 0.98 1.04 0.99 0.91 0.84 0.75 0.73
1.32 1.25 1.17 1.06 0.95 0.88 0.82 0.79 0.82 0.89 0.98 1.06 1.08 1.08 0.94 0.79 0.87 0.90 0.92 0.97 1.01 1.05 1.14 1.31 1.40 1.38 1.46 1.58 1.76 1.73 1.73 1.70 1.62 1.45 1.49 1.44 1.26 1.21 0.97 0.83 0.84 0.77 0.72
1.28 1.23 1.13 1.02 0.93 0.84 0.81 0.79 0.82 0.83 0.94 0.99 1.00 1.02 1.03 0.98 0.93 0.98 0.95 0.97 0.99 1.05 1.11 1.19 1.34 1.36 1.33 1.44 1.65 1.67 1.67 1.64 1.55 1.45 1.51 1.56 1.31 1.22 0.95 0.99 0.91 0.74 0.67
1.18 1.12 1.05 1.02 0.97 0.85 0.78 0.75 0.79 0.87 0.94 0.91 0.84 0.83 0.83 0.84 0.85 0.94 1.01 1.07 1.07 1.06 0.96 1.02 1.08 1.17 1.28 1.37 1.45 1.51 1.63 1.77 1.69 1.52 1.48 1.57 1.44 1.29 1.11 1.13 1.00 0.84 0.76
1.09 0.97 0.93 0.98 0.97 0.91 0.79 0.69 0.73 0.76 0.82 0.81 0.78 0.76 0.75 0.71 0.69 0.68 0.79 0.98 1.09 1.05 0.99 1.01 1.14 1.29 1.38 1.43 1.42 1.48 1.60 1.72 1.70 1.70 1.50 1.52 1.51 1.42 1.38 1.16 1.05 1.01 0.99

GEFSMA_prec_meanprecacc_270.txt.gz
Total_Precipitation_Accumulation
2.37 2.67 2.67 2.85 2.51 2.47 2.56 2.52 2.30 2.17 1.97 1.78 1.69 1.64 1.69 1.69 1.75 1.91 1.89 1.83 1.98 2.33 2.83 3.10 3.07 3.06 3.03 2.94 2.75 2.56 2.36 2.23 2.09 1.92 1.70 1.49 1.38 1.36 1.40 1.43 1.43 1.42 1.45
2.79 3.13 3.25 3.25 3.02 3.07 3.25 3.29 3.06 2.78 2.52 2.42 2.19 2.11 2.08 2.10 2.21 2.21 2.14 2.04 1.92 2.00 2.49 2.95 3.26 3.44 3.44 3.18 2.91 2.74 2.64 2.49 2.34 2.14 1.95 1.79 1.64 1.55 1.53 1.52 1.51 1.46 1.40
3.33 3.46 3.77 3.72 3.49 3.51 3.56 3.54 3.75 3.68 3.15 2.80 2.63 2.58 2.55 2.48 2.62 2.71 2.73 2.51 2.18 2.09 2.26 2.59 2.90 3.12 3.26 3.30 3.17 2.97 2.93 2.66 2.43 2.25 2.11 1.99 1.91 1.81 1.71 1.63 1.63 1.62 1.53
3.70 3.76 3.78 3.85 3.76 3.75 4.05 4.16 4.11 4.00 3.72 3.35 3.14 2.93 2.78 2.84 2.69 2.68 2.74 2.63 2.55 2.22 2.08 2.10 2.27 2.49 2.87 3.26 3.43 3.42 3.28 3.04 2.74 2.51 2.41 2.29 2.13 1.95 1.80 1.69 1.69 1.70 1.64
4.17 4.24 4.20 4.32 4.17 4.22 4.20 4.07 4.43 4.32 4.15 3.76 3.28 3.06 2.78 2.78 2.71 2.41 2.42 2.45 2.44 2.31 2.21 2.01 2.08 2.26 2.61 3.05 3.39 3.57 3.55 3.41 3.20 2.97 2.82 2.68 2.46 2.20 1.98 1.84 1.79 1.78 1.78
4.90 4.89 4.85 4.85 4.71 4.58 4.47 4.43 4.47 4.26 4.13 3.86 3.33 3.07 2.74 2.42 2.38 2.37 2.14 2.22 2.20 2.03 2.11 2.12 2.17 2.03 2.27 2.60 2.97 3.26 3.36 3.45 3.41 3.15 2.92 2.88 2.77 2.50 2.26 2.11 2.00 1.91 1.92
5.35 5.18 5.01 5.12 4.97 4.73 4.50 4.43 4.40 4.30 3.97 3.88 3.88 3.45 2.83 2.41 2.22 2.04 2.04 2.07 1.92 1.92 2.19 2.20 2.14 2.03 1.94 2.16 2.35 2.63 2.98 3.23 3.49 3.46 3.31 3.15 2.86 2.58 2.42 2.32 2.26 2.16 2.05
5.62 5.44 5.41 5.25 5.03 4.88 4.62 4.43 4.38 4.29 3.95 3.91 3.95 3.90 3.16 2.63 2.07 1.63 1.73 1.78 1.74 1.80 1.90 1.87 1.85 1.91 1.91 1.96 1.90 2.17 2.55 2.86 3.21 3.41 3.43 3.15 2.92 2.66 2.56 2.54 2.52 2.45 2.33
5.89 5.74 5.70 5.44 5.20 4.92 4.57 4.32 4.19 4.09 3.95 3.94 3.84 3.97 3.42 2.75 2.23 1.80 1.59 1.51 1.57 1.72 1.72 1.77 1.74 1.75 1.81 1.94 1.97 1.96 2.07 2.13 2.51 2.89 3.06 3.09 3.01 2.79 2.65 2.63 2.64 2.66 2.64
5.30 5.19 5.13 4.98 4.78 4.49 4.24 3.96 3.86 3.80 3.94 3.78 3.71 3.52 3.25 2.87 2.64 2.25 1.87 1.64 1.58 1.59 1.62 1.64 1.65 1.70 1.77 1.86 1.95 1.89 1.80 1.74 1.93 2.25 2.49 2.59 2.64 2.62 2.57 2.55 2.55 2.62 2.68
4.56 4.34 4.25 4.16 4.02 3.82 3.64 3.55 3.57 3.52 3.47 3.33 3.20 3.19 3.19 3.12 2.80 2.47 2.14 1.87 1.76 1.65 1.63 1.65 1.77 1.80 1.78 1.78 1.76 1.70 1.66 1.57 1.61 1.79 1.96 2.06 2.22 2.38 2.44 2.38 2.33 2.42 2.57
3.95 3.60 3.43 3.35 3.20 3.08 3.08 3.10 3.15 3.12 3.13 3.10 3.02 2.90 2.85 2.83 2.64 2.55 2.28 2.03 2.00 1.85 1.74 1.68 1.64 1.71 1.74 1.75 1.71 1.80 1.52 1.39 1.36 1.42 1.57 1.72 1.87 2.07 2.19 2.25 2.35 2.43 2.51
3.36 3.04 2.83 2.77 2.68 2.63 2.64 2.76 2.85 2.79 2.74 2.77 2.75 2.67 2.61 2.53 2.47 2.45 2.49 2.29 2.01 1.77 1.72 1.65 1.52 1.53 1.53 1.66 1.74 1.77 1.43 1.29 1.28 1.36 1.44 1.49 1.58 1.72 1.86 1.94 2.09 2.26 2.30
2.74 2.54 2.40 2.32 2.24 2.16 2.15 2.31 2.46 2.52 2.48 2.49 2.47 2.56 2.49 2.36 2.33 2.31 2.36 2.42 2.31 2.04 1.86 1.73 1.62 1.60 1.60 1.64 1.76 1.75 1.47 1.49 1.35 1.39 1.43 1.39 1.41 1.43 1.48 1.51 1.55 1.67 1.81
2.13 1.99 1.95 1.93 1.88 1.85 1.91 2.06 2.13 2.10 2.13 2.18 2.28 2.38 2.36 2.33 2.33 2.27 2.33 2.40 2.47 2.37 2.12 1.88 1.82 1.72 1.74 1.76 1.90 1.54 1.53 1.72 1.52 1.41 1.36 1.33 1.32 1.25 1.21 1.21 1.21 1.21 1.24
1.81 1.71 1.68 1.69 1.71 1.67 1.71 1.78 1.87 1.89 1.88 1.88 2.01 2.18 2.24 2.25 2.35 2.40 2.47 2.49 2.49 2.49 2.34 2.00 1.90 1.80 1.79 1.71 1.99 1.71 1.66 1.74 1.51 1.33 1.22 1.16 1.13 1.08 1.05 1.08 1.11 1.14 1.14
1.91 1.77 1.66 1.71 1.71 1.64 1.61 1.66 1.64 1.68 1.76 1.79 1.83 1.92 2.01 2.07 2.18 2.22 2.28 2.30 2.39 2.43 2.37 2.10 1.96 1.95 1.93 1.89 1.91 1.77 1.68 1.59 1.46 1.34 1.17 1.07 1.03 0.99 0.97 1.00 1.03 1.03 1.07
1.66 1.58 1.54 1.60 1.58 1.47 1.45 1.42 1.36 1.40 1.50 1.60 1.68 1.74 1.81 1.83 1.91 1.89 1.98 2.04 2.07 2.14 2.15 2.17 2.16 2.10 2.06 2.00 1.90 1.73 1.49 1.31 1.27 1.23 1.11 1.06 1.03 1.02 1.03 1.06 1.06 1.04 1.02
1.58 1.57 1.52 1.49 1.47 1.38 1.32 1.29 1.28 1.26 1.24 1.33 1.44 1.49 1.56 1.58 1.56 1.53 1.59 1.60 1.71 1.81 2.00 2.04 2.02 2.08 2.06 2.06 2.12 1.82 1.57 1.52 1.17 1.10 1.04 1.03 1.03 1.00 1.00 0.98 0.96 0.94 0.92
1.49 1.55 1.49 1.40 1.31 1.25 1.19 1.22 1.26 1.25 1.20 1.21 1.23 1.26 1.28 1.23 1.20 1.24 1.26 1.32 1.46 1.73 1.90 1.93 1.81 1.83 1.90 1.90 2.06 1.93 1.78 1.64 1.40 1.05 0.99 0.91 0.92 0.92 0.90 0.84 0.81 0.78 0.78
1.33 1.42 1.37 1.33 1.24 1.13 1.05 1.09 1.15 1.15 1.15 1.12 1.10 1.09 1.05 1.03 1.05 1.04 0.99 1.10 1.31 1.57 1.70 1.76 1.75 1.70 1.69 1.75 1.80 1.71 1.70 1.69 1.56 1.26 1.16 0.95 0.86 0.88 0.91 0.89 0.84 0.76 0.70
1.31 1.33 1.31 1.22 1.08 0.92 0.92 0.94 0.91 0.95 1.09 1.14 1.10 1.01 0.94 0.89 0.88 0.89 0.90 0.98 1.12 1.25 1.37 1.50 1.54 1.55 1.56 1.61 1.72 1.72 1.70 1.73 1.68 1.42 1.37 1.23 1.01 1.07 1.02 0.93 0.85 0.76 0.74
1.34 1.28 1.19 1.08 0.98 0.90 0.85 0.81 0.85 0.92 1.01 1.10 1.12 1.12 0.96 0.81 0.89 0.93 0.95 1.00 1.03 1.08 1.17 1.33 1.43 1.41 1.49 1.63 1.82 1.79 1.78 1.76 1.67 1.50 1.54 1.49 1.31 1.25 0.99 0.85 0.86 0.78 0.72
1.30 1.25 1.14 1.04 0.96 0.86 0.84 0.82 0.84 0.85 0.97 1.01 1.02 1.04 1.06 1.00 0.95 1.00 0.98 1.01 1.03 1.07 1.13 1.21 1.36 1.39 1.37 1.50 1.73 1.75 1.76 1.74 1.64 1.53 1.59 1.63 1.37 1.27 0.98 1.01 0.92 0.74 0.67
1.21 1.14 1.08 1.04 0.99 0.88 0.81 0.77 0.81 0.89 0.97 0.93 0.87 0.85 0.85 0.86 0.86 0.96 1.03 1.12 1.12 1.09 0.96 1.03 1.09 1.18 1.30 1.39 1.47 1.55 1.69 1.84 1.75 1.57 1.54 1.63 1.49 1.35 1.17 1.18 1.03 0.85 0.77
1.14 1.02 0.97 1.00 0.99 0.94 0.81 0.71 0.75 0.78 0.84 0.83 0.80 0.77 0.76 0.72 0.70 0.70 0.81 1.01 1.13 1.08 1.01 1.02 1.14 1.30 1.39 1.44 1.43 1.49 1.63 1.76 1.74 1.73 1.54 1.58 1.55 1.49 1.45 1.22 1.10 1.05 1.02

GEFSMA_prec_meanprecacc_276.txt.gz
Total_Precipitation_Accumulation
2.42 2.73 2.72 2.89 2.55 2.51 2.61 2.58 2.36 2.22 2.02 1.82 1.73 1.68 1.73 1.72 1.79 1.96 1.94 1.89 2.04 2.38 2.88 3.16 3.18 3.16 3.11 3.01 2.81 2.61 2.40 2.27 2.14 1.96 1.74 1.53 1.42 1.39 1.42 1.46 1.45 1.43 1.47
2.85 3.19 3.30 3.30 3.07 3.11 3.29 3.34 3.12 2.85 2.58 2.47 2.23 2.15 2.11 2.12 2.24 2.24 2.18 2.08 1.96 2.03 2.52 3.02 3.33 3.51 3.49 3.24 2.96 2.79 2.68 2.54 2.38 2.19 2.00 1.83 1.69 1.60 1.56 1.54 1.53 1.48 1.42
3.40 3.53 3.83 3.78 3.56 3.57 3.62 3.59 3.80 3.74 3.21 2.85 2.69 2.63 2.59 2.51 2.65 2.74 2.77 2.57 2.23 2.13 2.29 2.65 2.97 3.18 3.30 3.35 3.23 3.01 2.97 2.70 2.47 2.29 2.15 2.04 1.96 1.87 1.77 1.67 1.65 1.63 1.54
3.75 3.82 3.84 3.91 3.82 3.81 4.10 4.23 4.17 4.06 3.81 3.42 3.23 3.00 2.84 2.90 2.74 2.74 2.81 2.68 2.60 2.25 2.10 2.13 2.33 2.55 2.92 3.30 3.48 3.47 3.31 3.07 2.78 2.55 2.45 2.34 2.18 2.01 1.86 1.76 1.73 1.72 1.66
4.23 4.30 4.27 4.39 4.24 4.29 4.27 4.14 4.52 4.44 4.29 3.88 3.39 3.17 2.87 2.85 2.77 2.47 2.48 2.51 2.48 2.34 2.22 2.03 2.13 2.34 2.67 3.09 3.43 3.62 3.58 3.45 3.24 3.00 2.86 2.73 2.52 2.26 2.03 1.89 1.84 1.81 1.81
4.97 4.97 4.93 4.92 4.78 4.65 4.53 4.50 4.58 4.39 4.25 3.96 3.43 3.18 2.85 2.50 2.45 2.44 2.19 2.29 2.25 2.05 2.13 2.15 2.21 2.09 2.35 2.66 3.01 3.30 3.40 3.49 3.46 3.19 2.96 2.92 2.81 2.56 2.32 2.17 2.04 1.95 1.96
5.43 5.27 5.09 5.19 5.04 4.80 4.56 4.50 4.48 4.40 4.08 4.00 4.00 3.56 2.91 2.47 2.27 2.10 2.10 2.15 1.98 1.96 2.23 2.24 2.18 2.08 1.99 2.23 2.42 2.69 3.02 3.27 3.52 3.50 3.34 3.18 2.89 2.62 2.45 2.36 2.30 2.19 2.07
5.68 5.50 5.50 5.32 5.09 4.96 4.70 4.50 4.46 4.38 4.05 4.03 4.06 4.00 3.26 2.72 2.13 1.68 1.78 1.84 1.81 1.87 1.97 1.91 1.89 1.95 1.96 2.01 1.95 2.22 2.61 2.90 3.25 3.44 3.46 3.19 2.95 2.68 2.59 2.57 2.55 2.48 2.36
5.94 5.81 5.78 5.49 5.25 4.99 4.64 4.38 4.26 4.18 4.04 4.03 3.94 4.07 3.52 2.85 2.33 1.88 1.65 1.57 1.63 1.78 1.77 1.82 1.77 1.78 1.85 2.00 2.03 2.00 2.10 2.17 2.56 2.94 3.09 3.12 3.03 2.82 2.68 2.66 2.68 2.69 2.67
5.34 5.23 5.18 5.02 4.82 4.53 4.29 4.00 3.92 3.88 4.02 3.86 3.81 3.62 3.35 2.99 2.75 2.36 1.97 1.71 1.65 1.66 1.67 1.68 1.69 1.74 1.80 1.90 2.01 1.94 1.85 1.78 1.97 2.30 2.55 2.63 2.67 2.64 2.61 2.60 2.61 2.67 2.71
4.59 4.37 4.29 4.20 4.05 3.86 3.68 3.60 3.63 3.58 3.54 3.40 3.29 3.28 3.30 3.24 2.91 2.58 2.24 1.96 1.85 1.72 1.68 1.71 1.83 1.85 1.83 1.85 1.83 1.77 1.72 1.62 1.64 1.83 2.03 2.14 2.28 2.41 2.48 2.47 2.42 2.47 2.61
3.99 3.63 3.48 3.40 3.25 3.12 3.13 3.15 3.21 3.18 3.20 3.18 3.09 2.96 2.93 2.92 2.73 2.65 2.38 2.13 2.10 1.92 1.80 1.73 1.70 1.77 1.80 1.81 1.76 1.85 1.57 1.44 1.40 1.45 1.61 1.78 1.96 2.14 2.24 2.36 2.44 2.49 2.54
3.40 3.08 2.88 2.81 2.72 2.68 2.68 2.82 2.91 2.85 2.79 2.83 2.81 2.72 2.66 2.58 2.52 2.52 2.59 2.39 2.12 1.86 1.80 1.71 1.59 1.60 1.59 1.72 1.80 1.83 1.49 1.33 1.31 1.38 1.47 1.52 1.62 1.79 1.94 2.00 2.15 2.31 2.33
2.79 2.59 2.44 2.36 2.28 2.21 2.20 2.37 2.51 2.57 2.53 2.54 2.52 2.62 2.55 2.41 2.38 2.37 2.43 2.52 2.42 2.14 1.95 1.80 1.67 1.65 1.66 1.69 1.81 1.80 1.52 1.54 1.39 1.42 1.45 1.41 1.43 1.46 1.53 1.58 1.61 1.71 1.84
2.20 2.04 2.00 1.98 1.93 1.91 1.97 2.13 2.21 2.17 2.21 2.25 2.34 2.44 2.42 2.38 2.38 2.32 2.40 2.50 2.58 2.47 2.21 1.95 1.87 1.76 1.78 1.81 1.97 1.61 1.59 1.78 1.57 1.44 1.38 1.36 1.34 1.27 1.24 1.25 1.25 1.26 1.27
1.89 1.78 1.73 1.77 1.80 1.75 1.79 1.87 1.96 1.98 1.96 1.95 2.08 2.24 2.30 2.30 2.41 2.45 2.54 2.57 2.58 2.58 2.42 2.05 1.95 1.85 1.83 1.75 2.05 1.77 1.73 1.83 1.57 1.38 1.25 1.19 1.16 1.11 1.08 1.11 1.15 1.18 1.18
1.99 1.84 1.72 1.78 1.78 1.70 1.69 1.74 1.72 1.76 1.83 1.87 1.89 1.98 2.07 2.13 2.25 2.28 2.35 2.37 2.46 2.51 2.44 2.15 2.02 2.01 2.01 1.95 1.98 1.84 1.75 1.69 1.55 1.42 1.23 1.11 1.08 1.05 1.03 1.05 1.08 1.08 1.12
1.75 1.66 1.60 1.66 1.65 1.53 1.52 1.49 1.43 1.48 1.58 1.69 1.76 1.83 1.89 1.91 1.99 1.95 2.04 2.10 2.14 2.22 2.23 2.23 2.22 2.16 2.13 2.08 1.99 1.81 1.56 1.38 1.34 1.33 1.18 1.11 1.07 1.06 1.09 1.12 1.12 1.11 1.08
1.66 1.65 1.60 1.56 1.54 1.45 1.40 1.36 1.34 1.32 1.31 1.41 1.53 1.58 1.63 1.67 1.64 1.59 1.65 1.66 1.77 1.88 2.08 2.11 2.07 2.13 2.11 2.12 2.22 1.93 1.68 1.62 1.24 1.19 1.12 1.09 1.08 1.04 1.03 1.03 1.02 1.00 0.99
1.55 1.61 1.56 1.47 1.38 1.31 1.25 1.30 1.35 1.33 1.28 1.29 1.30 1.33 1.33 1.29 1.26 1.30 1.31 1.37 1.53 1.80 1.98 2.01 1.89 1.89 1.95 1.95 2.14 2.03 1.91 1.77 1.49 1.12 1.06 0.98 0.98 0.98 0.95 0.88 0.85 0.83 0.83
1.38 1.46 1.42 1.38 1.30 1.19 1.12 1.16 1.22 1.22 1.22 1.18 1.16 1.14 1.10 1.08 1.12 1.10 1.03 1.15 1.40 1.67 1.78 1.84 1.82 1.77 1.75 1.82 1.87 1.78 1.78 1.79 1.67 1.35 1.23 1.01 0.91 0.94 0.97 0.94 0.89 0.80 0.73
1.36 1.37 1.35 1.26 1.13 0.96 0.96 0.98 0.95 1.01 1.14 1.20 1.17 1.07 0.99 0.94 0.92 0.93 0.93 1.02 1.17 1.31 1.44 1.57 1.61 1.61 1.61 1.66 1.77 1.77 1.77 1.80 1.75 1.50 1.46 1.31 1.07 1.12 1.07 0.97 0.91 0.81 0.78
1.38 1.31 1.22 1.11 1.00 0.92 0.87 0.84 0.88 0.95 1.06 1.15 1.18 1.18 1.02 0.86 0.94 0.97 0.99 1.03 1.06 1.11 1.21 1.39 1.50 1.46 1.53 1.67 1.87 1.84 1.84 1.83 1.73 1.56 1.62 1.57 1.39 1.32 1.05 0.89 0.91 0.82 0.76
1.33 1.28 1.17 1.05 0.98 0.88 0.85 0.83 0.85 0.87 1.00 1.06 1.08 1.10 1.11 1.06 0.99 1.04 1.02 1.04 1.06 1.11 1.17 1.24 1.39 1.43 1.40 1.54 1.77 1.79 1.81 1.79 1.70 1.58 1.66 1.70 1.44 1.33 1.05 1.07 0.97 0.80 0.72
1.24 1.17 1.10 1.07 1.02 0.90 0.82 0.78 0.82 0.91 1.01 0.98 0.91 0.90 0.89 0.89 0.89 0.97 1.05 1.15 1.15 1.12 0.99 1.05 1.11 1.20 1.32 1.41 1.50 1.58 1.73 1.88 1.79 1.61 1.59 1.69 1.53 1.40 1.23 1.23 1.07 0.89 0.80
1.16 1.05 1.00 1.03 1.03 0.98 0.84 0.73 0.77 0.80 0.87 0.87 0.86 0.82 0.79 0.74 0.71 0.71 0.82 1.04 1.16 1.11 1.04 1.04 1.16 1.32 1.40 1.45 1.44 1.51 1.66 1.79 1.78 1.77 1.58 1.63 1.60 1.54 1.50 1.27 1.15 1.08 1.05

GEFSMA_prec_meanprecacc_282.txt.gz
Total_Precipitation_Accumulation
2.44 2.74 2.74 2.90 2.56 2.53 2.63 2.60 2.41 2.28 2.06 1.86 1.78 1.72 1.78 1.80 1.85 2.02 1.98 1.93 2.08 2.43 2.96 3.25 3.26 3.21 3.16 3.05 2.84 2.65 2.44 2.30 2.17 1.99 1.76 1.55 1.44 1.40 1.44 1.47 1.47 1.45 1.49
2.88 3.21 3.30 3.31 3.09 3.13 3.31 3.35 3.14 2.90 2.63 2.53 2.29 2.23 2.19 2.20 2.32 2.31 2.24 2.13 2.00 2.08 2.59 3.09 3.45 3.62 3.56 3.29 3.01 2.83 2.73 2.58 2.42 2.23 2.03 1.85 1.71 1.62 1.57 1.56 1.54 1.50 1.43
3.44 3.56 3.85 3.79 3.57 3.59 3.64 3.61 3.81 3.76 3.23 2.89 2.76 2.72 2.65 2.56 2.72 2.79 2.83 2.61 2.28 2.18 2.34 2.70 3.06 3.28 3.38 3.40 3.28 3.06 3.00 2.74 2.51 2.33 2.19 2.07 2.00 1.90 1.78 1.68 1.66 1.65 1.55
3.78 3.83 3.86 3.92 3.84 3.83 4.13 4.25 4.20 4.10 3.85 3.45 3.27 3.05 2.90 2.95 2.78 2.79 2.87 2.73 2.63 2.28 2.13 2.17 2.40 2.63 2.98 3.34 3.52 3.51 3.35 3.10 2.81 2.58 2.49 2.38 2.22 2.05 1.88 1.77 1.75 1.74 1.67
4.25 4.31 4.29 4.41 4.26 4.32 4.30 4.18 4.56 4.48 4.35 3.92 3.44 3.24 2.97 2.95 2.84 2.55 2.56 2.56 2.51 2.36 2.24 2.05 2.17 2.39 2.71 3.14 3.48 3.67 3.63 3.48 3.27 3.03 2.90 2.76 2.55 2.29 2.06 1.92 1.87 1.84 1.83
5.01 5.01 4.96 4.96 4.83 4.69 4.57 4.54 4.61 4.42 4.29 4.00 3.49 3.24 2.92 2.57 2.49 2.48 2.24 2.34 2.29 2.08 2.16 2.17 2.23 2.11 2.38 2.70 3.05 3.35 3.44 3.53 3.48 3.21 2.99 2.95 2.85 2.60 2.37 2.20 2.07 1.98 1.99
5.49 5.34 5.17 5.26 5.10 4.86 4.62 4.55 4.53 4.44 4.12 4.05 4.07 3.62 2.96 2.53 2.32 2.16 2.17 2.22 2.04 2.03 2.29 2.28 2.20 2.10 2.00 2.25 2.44 2.72 3.07 3.31 3.55 3.52 3.36 3.21 2.92 2.65 2.49 2.39 2.33 2.22 2.10
5.75 5.58 5.59 5.42 5.19 5.05 4.78 4.56 4.52 4.44 4.11 4.12 4.14 4.07 3.31 2.77 2.18 1.72 1.83 1.88 1.85 1.94 2.03 1.96 1.92 1.97 1.98 2.02 1.96 2.24 2.65 2.95 3.29 3.48 3.50 3.22 2.98 2.72 2.63 2.61 2.59 2.50 2.38
5.99 5.87 5.85 5.58 5.35 5.08 4.72 4.43 4.30 4.22 4.09 4.11 4.01 4.11 3.55 2.87 2.35 1.91 1.68 1.60 1.67 1.81 1.80 1.86 1.81 1.81 1.88 2.02 2.05 2.02 2.13 2.21 2.60 2.99 3.15 3.17 3.07 2.85 2.72 2.71 2.73 2.72 2.69
5.37 5.28 5.25 5.10 4.91 4.63 4.37 4.06 3.96 3.91 4.04 3.90 3.86 3.65 3.38 3.01 2.77 2.38 2.00 1.75 1.71 1.72 1.72 1.72 1.73 1.76 1.82 1.92 2.03 1.97 1.88 1.82 2.01 2.36 2.61 2.68 2.72 2.68 2.65 2.64 2.66 2.71 2.74
4.63 4.42 4.36 4.26 4.11 3.92 3.75 3.66 3.68 3.62 3.56 3.42 3.32 3.32 3.33 3.27 2.93 2.60 2.26 1.99 1.90 1.78 1.73 1.74 1.86 1.89 1.87 1.88 1.87 1.81 1.78 1.67 1.70 1.90 2.10 2.21 2.33 2.46 2.52 2.50 2.45 2.51 2.64
4.06 3.72 3.57 3.46 3.29 3.16 3.16 3.18 3.24 3.22 3.23 3.21 3.12 2.99 2.96 2.94 2.76 2.67 2.40 2.15 2.12 1.95 1.84 1.77 1.73 1.81 1.86 1.86 1.81 1.91 1.64 1.53 1.49 1.53 1.68 1.84 2.01 2.18 2.28 2.39 2.46 2.52 2.58
3.45 3.14 2.94 2.87 2.77 2.71 2.72 2.85 2.95 2.90 2.84 2.87 2.85 2.77 2.70 2.61 2.55 2.55 2.61 2.41 2.14 1.88 1.84 1.74 1.62 1.65 1.65 1.77 1.85 1.90 1.55 1.40 1.38 1.44 1.52 1.56 1.65 1.83 1.98 2.04 2.18 2.35 2.37
2.82 2.62 2.49 2.42 2.34 2.26 2.24 2.41 2.56 2.64 2.62 2.64 2.62 2.70 2.61 2.46 2.44 2.41 2.46 2.56 2.45 2.17 1.97 1.82 1.70 1.69 1.69 1.73 1.86 1.87 1.59 1.61 1.46 1.50 1.53 1.48 1.49 1.51 1.57 1.61 1.64 1.75 1.88
2.24 2.10 2.07 2.07 2.03 1.99 2.04 2.20 2.28 2.25 2.31 2.34 2.42 2.52 2.50 2.44 2.43 2.37 2.44 2.55 2.63 2.51 2.23 1.96 1.90 1.79 1.82 1.85 2.04 1.70 1.69 1.89 1.68 1.56 1.50 1.45 1.41 1.32 1.28 1.28 1.28 1.30 1.31
1.93 1.84 1.80 1.83 1.87 1.84 1.88 1.99 2.08 2.10 2.06 2.03 2.15 2.31 2.36 2.35 2.46 2.51 2.60 2.63 2.64 2.64 2.45 2.06 1.96 1.87 1.87 1.80 2.11 1.81 1.77 1.88 1.64 1.45 1.33 1.25 1.21 1.15 1.12 1.15 1.17 1.21 1.21
2.06 1.90 1.77 1.83 1.84 1.76 1.76 1.81 1.78 1.83 1.90 1.94 1.97 2.05 2.13 2.20 2.33 2.37 2.44 2.46 2.54 2.57 2.49 2.17 2.04 2.03 2.04 1.99 2.02 1.89 1.79 1.73 1.59 1.47 1.28 1.16 1.12 1.08 1.05 1.08 1.11 1.10 1.14
1.84 1.75 1.69 1.76 1.74 1.60 1.58 1.55 1.49 1.55 1.65 1.75 1.82 1.88 1.93 1.96 2.03 2.00 2.09 2.14 2.18 2.27 2.28 2.26 2.23 2.17 2.16 2.10 2.02 1.84 1.59 1.40 1.36 1.36 1.22 1.15 1.11 1.10 1.12 1.15 1.14 1.13 1.10
1.75 1.77 1.75 1.73 1.70 1.58 1.49 1.43 1.41 1.40 1.37 1.45 1.57 1.62 1.67 1.71 1.67 1.62 1.67 1.68 1.79 1.91 2.11 2.14 2.08 2.15 2.12 2.13 2.23 1.95 1.71 1.66 1.27 1.22 1.15 1.13 1.12 1.08 1.07 1.06 1.04 1.03 1.00
1.63 1.71 1.66 1.58 1.50 1.41 1.33 1.35 1.40 1.37 1.32 1.31 1.32 1.36 1.37 1.33 1.30 1.34 1.35 1.41 1.56 1.82 2.01 2.04 1.91 1.92 1.97 1.97 2.16 2.05 1.93 1.81 1.54 1.15 1.10 1.02 1.03 1.03 1.01 0.93 0.89 0.86 0.87
1.41 1.50 1.46 1.42 1.36 1.25 1.17 1.19 1.25 1.24 1.25 1.21 1.19 1.17 1.12 1.11 1.14 1.12 1.05 1.17 1.41 1.68 1.80 1.86 1.85 1.80 1.77 1.84 1.89 1.80 1.79 1.81 1.71 1.40 1.28 1.05 0.94 0.98 1.01 0.99 0.94 0.84 0.77
1.38 1.40 1.39 1.30 1.18 1.01 1.02 1.01 0.98 1.03 1.16 1.22 1.19 1.09 1.00 0.95 0.93 0.94 0.95 1.03 1.18 1.32 1.45 1.59 1.64 1.65 1.64 1.69 1.79 1.79 1.79 1.82 1.78 1.54 1.51 1.34 1.10 1.16 1.10 1.01 0.96 0.86 0.81
1.40 1.33 1.24 1.15 1.04 0.96 0.92 0.88 0.91 0.98 1.08 1.17 1.21 1.21 1.04 0.87 0.95 0.98 1.00 1.04 1.06 1.12 1.22 1.40 1.52 1.50 1.56 1.70 1.90 1.87 1.88 1.86 1.76 1.59 1.67 1.62 1.43 1.36 1.10 0.95 0.97 0.88 0.82
1.35 1.30 1.19 1.07 1.00 0.91 0.89 0.88 0.89 0.90 1.04 1.10 1.11 1.13 1.14 1.09 1.02 1.06 1.03 1.05 1.07 1.11 1.17 1.25 1.40 1.45 1.44 1.57 1.79 1.81 1.84 1.83 1.73 1.62 1.70 1.75 1.47 1.38 1.09 1.11 1.01 0.85 0.78
1.26 1.19 1.11 1.08 1.04 0.92 0.85 0.82 0.86 0.94 1.04 1.02 0.97 0.94 0.92 0.93 0.93 1.01 1.09 1.18 1.17 1.13 1.00 1.06 1.12 1.22 1.35 1.44 1.53 1.61 1.75 1.91 1.82 1.64 1.62 1.71 1.55 1.42 1.26 1.27 1.11 0.93 0.85
1.18 1.06 1.01 1.05 1.04 1.00 0.86 0.76 0.82 0.85 0.92 0.92 0.92 0.88 0.84 0.78 0.75 0.74 0.85 1.07 1.20 1.13 1.06 1.06 1.18 1.33 1.42 1.47 1.46 1.52 1.68 1.82 1.80 1.80 1.60 1.65 1.60 1.55 1.51 1.29 1.18 1.12 1.09

GEFSMA_prec_meanprecacc_288.txt.gz
Total_Precipitation_Accumulation
2.45 2.74 2.74 2.91 2.57 2.54 2.65 2.61 2.41 2.29 2.07 1.87 1.79 1.73 1.80 1.82 1.88 2.06 2.03 1.98 2.14 2.50 3.04 3.34 3.34 3.30 3.25 3.12 2.93 2.74 2.52 2.37 2.23 2.05 1.81 1.57 1.46 1.43 1.46 1.49 1.50 1.46 1.50
2.88 3.21 3.31 3.31 3.10 3.15 3.33 3.36 3.15 2.91 2.63 2.53 2.31 2.25 2.20 2.21 2.34 2.34 2.27 2.16 2.05 2.14 2.68 3.19 3.53 3.69 3.63 3.36 3.09 2.92 2.81 2.66 2.49 2.29 2.08 1.89 1.74 1.65 1.59 1.58 1.56 1.51 1.44
3.45 3.56 3.86 3.80 3.59 3.61 3.66 3.62 3.82 3.77 3.24 2.90 2.78 2.74 2.67 2.57 2.73 2.81 2.85 2.64 2.31 2.22 2.40 2.79 3.15 3.36 3.45 3.47 3.35 3.13 3.08 2.82 2.58 2.39 2.24 2.12 2.04 1.94 1.81 1.70 1.68 1.67 1.56
3.80 3.84 3.87 3.93 3.86 3.85 4.15 4.27 4.23 4.12 3.87 3.47 3.30 3.09 2.94 2.97 2.80 2.82 2.91 2.77 2.66 2.31 2.17 2.26 2.51 2.73 3.06 3.41 3.59 3.58 3.42 3.17 2.87 2.64 2.55 2.43 2.26 2.08 1.92 1.80 1.77 1.75 1.68
4.27 4.33 4.30 4.42 4.28 4.34 4.32 4.20 4.59 4.51 4.38 3.96 3.48 3.28 3.01 2.98 2.86 2.57 2.59 2.60 2.56 2.40 2.27 2.14 2.33 2.52 2.79 3.21 3.56 3.74 3.70 3.54 3.32 3.08 2.95 2.82 2.60 2.34 2.10 1.95 1.89 1.86 1.85
5.05 5.03 4.98 4.98 4.84 4.71 4.59 4.57 4.66 4.47 4.34 4.05 3.53 3.27 2.94 2.60 2.51 2.51 2.28 2.38 2.34 2.14 2.20 2.21 2.30 2.19 2.48 2.79 3.13 3.41 3.51 3.59 3.54 3.25 3.03 3.01 2.91 2.65 2.42 2.25 2.11 2.02 2.02
5.54 5.39 5.22 5.29 5.12 4.88 4.65 4.59 4.58 4.49 4.17 4.10 4.12 3.67 2.99 2.55 2.34 2.18 2.19 2.25 2.08 2.06 2.33 2.32 2.22 2.12 2.05 2.31 2.52 2.80 3.14 3.38 3.62 3.58 3.42 3.27 2.99 2.71 2.55 2.46 2.40 2.27 2.14
5.83 5.64 5.65 5.47 5.24 5.10 4.83 4.62 4.59 4.50 4.18 4.20 4.21 4.15 3.37 2.80 2.21 1.76 1.86 1.90 1.88 1.96 2.05 2.00 1.95 1.99 1.99 2.05 1.99 2.30 2.72 3.02 3.37 3.56 3.57 3.28 3.04 2.78 2.70 2.68 2.65 2.56 2.43
6.06 5.94 5.90 5.62 5.40 5.13 4.78 4.52 4.40 4.33 4.21 4.21 4.10 4.19 3.60 2.90 2.38 1.95 1.70 1.62 1.68 1.83 1.82 1.88 1.84 1.84 1.90 2.04 2.07 2.05 2.19 2.25 2.66 3.06 3.23 3.24 3.13 2.90 2.77 2.76 2.78 2.77 2.74
5.41 5.34 5.33 5.18 4.98 4.70 4.45 4.13 4.04 3.99 4.13 3.98 3.94 3.73 3.43 3.05 2.81 2.42 2.02 1.77 1.73 1.73 1.73 1.74 1.75 1.80 1.86 1.95 2.06 1.99 1.92 1.86 2.05 2.41 2.68 2.76 2.78 2.73 2.69 2.69 2.71 2.76 2.80
4.67 4.48 4.44 4.34 4.18 3.98 3.81 3.73 3.76 3.70 3.65 3.51 3.40 3.40 3.42 3.34 2.99 2.63 2.29 2.01 1.92 1.80 1.76 1.77 1.88 1.92 1.90 1.91 1.90 1.84 1.82 1.72 1.74 1.95 2.16 2.28 2.41 2.53 2.58 2.55 2.50 2.56 2.69
4.09 3.76 3.64 3.53 3.35 3.21 3.20 3.21 3.29 3.26 3.28 3.26 3.17 3.05 3.02 3.01 2.81 2.71 2.43 2.17 2.14 1.97 1.87 1.80 1.76 1.84 1.88 1.89 1.83 1.93 1.67 1.57 1.54 1.59 1.73 1.89 2.07 2.25 2.34 2.44 2.51 2.57 2.62
3.47 3.16 2.97 2.90 2.80 2.74 2.74 2.89 2.99 2.93 2.88 2.91 2.89 2.81 2.74 2.66 2.60 2.60 2.66 2.44 2.15 1.90 1.85 1.76 1.64 1.66 1.67 1.79 1.86 1.91 1.56 1.42 1.41 1.49 1.56 1.59 1.70 1.88 2.04 2.10 2.23 2.39 2.41
2.87 2.67 2.53 2.46 2.39 2.31 2.28 2.45 2.60 2.67 2.66 2.69 2.67 2.76 2.68 2.53 2.51 2.47 2.51 2.60 2.49 2.19 1.99 1.83 1.72 1.70 1.71 1.75 1.88 1.89 1.60 1.63 1.50 1.53 1.56 1.52 1.52 1.55 1.63 1.68 1.70 1.80 1.92
2.31 2.16 2.12 2.13 2.09 2.06 2.10 2.25 2.32 2.28 2.35 2.39 2.48 2.58 2.56 2.49 2.49 2.42 2.48 2.59 2.67 2.53 2.24 1.97 1.90 1.80 1.83 1.87 2.06 1.71 1.69 1.90 1.70 1.59 1.52 1.48 1.45 1.37 1.33 1.34 1.34 1.34 1.35
2.00 1.91 1.87 1.90 1.93 1.90 1.93 2.02 2.12 2.15 2.12 2.09 2.20 2.35 2.40 2.38 2.50 2.55 2.63 2.66 2.67 2.66 2.47 2.08 1.98 1.88 1.88 1.81 2.12 1.83 1.78 1.90 1.66 1.47 1.34 1.27 1.23 1.18 1.16 1.20 1.22 1.26 1.27
2.18 2.00 1.85 1.91 1.91 1.84 1.82 1.85 1.81 1.88 1.95 1.98 2.02 2.10 2.18 2.25 2.38 2.42 2.50 2.51 2.58 2.62 2.53 2.21 2.08 2.07 2.07 2.01 2.04 1.91 1.82 1.76 1.61 1.49 1.30 1.18 1.14 1.10 1.09 1.13 1.17 1.15 1.19
1.95 1.87 1.82 1.85 1.81 1.68 1.68 1.63 1.56 1.62 1.73 1.82 1.87 1.93 1.98 2.02 2.10 2.06 2.15 2.21 2.24 2.33 2.34 2.31 2.28 2.20 2.18 2.12 2.04 1.87 1.62 1.44 1.40 1.38 1.24 1.17 1.14 1.12 1.15 1.18 1.19 1.18 1.14
1.84 1.85 1.84 1.82 1.79 1.69 1.65 1.60 1.56 1.53 1.47 1.52 1.62 1.66 1.72 1.76 1.72 1.67 1.72 1.73 1.83 1.95 2.15 2.18 2.13 2.19 2.16 2.16 2.26 1.98 1.73 1.68 1.30 1.24 1.17 1.16 1.15 1.12 1.10 1.09 1.09 1.07 1.05
1.68 1.76 1.72 1.64 1.59 1.50 1.41 1.44 1.47 1.43 1.37 1.36 1.37 1.40 1.40 1.36 1.33 1.36 1.37 1.43 1.58 1.84 2.03 2.06 1.94 1.94 2.00 1.99 2.18 2.08 1.96 1.83 1.55 1.17 1.12 1.04 1.06 1.06 1.03 0.96 0.92 0.90 0.91
1.43 1.53 1.50 1.47 1.41 1.32 1.22 1.25 1.30 1.27 1.28 1.24 1.22 1.20 1.15 1.13 1.16 1.13 1.06 1.18 1.43 1.70 1.81 1.88 1.87 1.81 1.79 1.87 1.92 1.82 1.81 1.83 1.72 1.41 1.29 1.06 0.97 1.00 1.02 1.01 0.96 0.87 0.80
1.40 1.42 1.41 1.33 1.21 1.06 1.08 1.09 1.04 1.07 1.18 1.24 1.20 1.10 1.02 0.97 0.95 0.95 0.96 1.04 1.19 1.33 1.46 1.60 1.65 1.66 1.65 1.70 1.81 1.82 1.81 1.84 1.78 1.55 1.52 1.35 1.12 1.18 1.12 1.03 0.97 0.88 0.85
1.40 1.33 1.25 1.16 1.05 0.99 0.97 0.94 0.98 1.03 1.11 1.19 1.23 1.23 1.06 0.89 0.97 1.00 1.02 1.05 1.07 1.12 1.23 1.41 1.52 1.50 1.57 1.70 1.91 1.89 1.90 1.88 1.78 1.61 1.69 1.63 1.44 1.38 1.12 0.97 0.99 0.90 0.84
1.35 1.30 1.19 1.08 1.01 0.93 0.91 0.91 0.93 0.95 1.09 1.13 1.13 1.16 1.18 1.13 1.06 1.09 1.06 1.07 1.08 1.12 1.19 1.26 1.41 1.45 1.44 1.58 1.80 1.81 1.84 1.84 1.75 1.64 1.73 1.78 1.50 1.40 1.11 1.13 1.04 0.87 0.80
1.27 1.19 1.12 1.09 1.04 0.93 0.87 0.84 0.90 0.97 1.09 1.07 1.01 0.99 0.98 0.97 0.98 1.06 1.13 1.22 1.21 1.17 1.04 1.08 1.14 1.23 1.36 1.45 1.53 1.61 1.76 1.92 1.84 1.67 1.65 1.76 1.60 1.46 1.29 1.30 1.13 0.96 0.88
1.19 1.06 1.02 1.05 1.05 1.01 0.87 0.79 0.86 0.90 0.95 0.96 0.96 0.92 0.88 0.82 0.81 0.82 0.91 1.13 1.25 1.17 1.09 1.09 1.20 1.35 1.43 1.49 1.47 1.53 1.70 1.84 1.83 1.83 1.64 1.69 1.67 1.62 1.57 1.33 1.20 1.14 1.11

GEFSMA_prec_meanprecacc_294.txt.gz
Total_Precipitation_Accumulation
2.47 2.77 2.76 2.92 2.58 2.56 2.67 2.63 2.42 2.30 2.08 1.88 1.80 1.75 1.81 1.84 1.91 2.09 2.07 2.03 2.18 2.56 3.11 3.43 3.46 3.40 3.35 3.21 3.03 2.85 2.62 2.46 2.31 2.11 1.87 1.62 1.50 1.46 1.49 1.52 1.52 1.48 1.52
2.90 3.23 3.33 3.33 3.11 3.17 3.35 3.37 3.16 2.92 2.64 2.54 2.32 2.26 2.21 2.23 2.37 2.37 2.31 2.22 2.11 2.20 2.75 3.28 3.63 3.80 3.73 3.46 3.18 3.02 2.90 2.74 2.55 2.35 2.14 1.94 1.79 1.69 1.62 1.61 1.59 1.53 1.46
3.47 3.58 3.88 3.82 3.61 3.63 3.67 3.63 3.84 3.79 3.25 2.92 2.81 2.78 2.70 2.59 2.76 2.84 2.89 2.70 2.37 2.28 2.47 2.87 3.23 3.45 3.53 3.58 3.45 3.23 3.18 2.91 2.64 2.44 2.29 2.17 2.09 2.00 1.86 1.74 1.71 1.70 1.59
3.82 3.87 3.89 3.95 3.87 3.87 4.17 4.29 4.25 4.14 3.89 3.50 3.34 3.13 2.98 3.01 2.83 2.84 2.93 2.79 2.70 2.36 2.24 2.33 2.60 2.81 3.13 3.51 3.69 3.68 3.53 3.28 2.96 2.71 2.59 2.48 2.32 2.15 1.98 1.84 1.80 1.79 1.72
4.30 4.36 4.32 4.45 4.30 4.36 4.34 4.22 4.61 4.55 4.42 4.00 3.52 3.32 3.04 3.01 2.88 2.58 2.61 2.62 2.59 2.44 2.33 2.23 2.45 2.63 2.90 3.32 3.66 3.83 3.79 3.65 3.41 3.14 3.00 2.87 2.66 2.40 2.17 2.00 1.93 1.88 1.88
5.09 5.08 5.03 5.03 4.88 4.74 4.62 4.61 4.71 4.51 4.37 4.08 3.56 3.29 2.97 2.63 2.54 2.53 2.29 2.40 2.36 2.16 2.24 2.27 2.39 2.29 2.62 2.91 3.25 3.53 3.61 3.69 3.61 3.32 3.10 3.07 2.97 2.71 2.49 2.32 2.18 2.07 2.05
5.59 5.43 5.27 5.35 5.20 4.94 4.70 4.64 4.63 4.53 4.20 4.14 4.15 3.70 3.02 2.59 2.37 2.20 2.21 2.28 2.11 2.09 2.36 2.35 2.27 2.19 2.13 2.40 2.63 2.94 3.27 3.49 3.71 3.66 3.49 3.33 3.04 2.76 2.62 2.54 2.48 2.34 2.19
5.88 5.70 5.70 5.52 5.32 5.16 4.89 4.67 4.63 4.54 4.21 4.23 4.25 4.18 3.40 2.84 2.24 1.78 1.88 1.93 1.91 2.00 2.08 2.03 2.00 2.05 2.05 2.12 2.06 2.39 2.83 3.13 3.47 3.66 3.66 3.36 3.10 2.83 2.75 2.73 2.71 2.61 2.49
6.09 5.99 5.95 5.67 5.45 5.19 4.84 4.58 4.46 4.38 4.25 4.25 4.13 4.24 3.64 2.94 2.42 1.97 1.72 1.64 1.70 1.85 1.85 1.92 1.88 1.88 1.95 2.10 2.14 2.11 2.24 2.32 2.73 3.15 3.32 3.31 3.20 2.97 2.83 2.82 2.84 2.83 2.80
5.45 5.38 5.38 5.24 5.05 4.75 4.50 4.19 4.09 4.04 4.17 4.02 3.98 3.77 3.48 3.11 2.88 2.47 2.04 1.79 1.75 1.76 1.76 1.77 1.79 1.84 1.90 2.01 2.11 2.04 1.96 1.90 2.11 2.48 2.77 2.84 2.85 2.79 2.75 2.75 2.77 2.82 2.86
4.70 4.51 4.49 4.42 4.25 4.04 3.85 3.78 3.81 3.74 3.68 3.54 3.44 3.45 3.47 3.41 3.06 2.71 2.34 2.05 1.95 1.83 1.79 1.81 1.93 1.97 1.94 1.97 1.97 1.89 1.86 1.76 1.79 2.02 2.24 2.38 2.53 2.62 2.66 2.64 2.59 2.65 2.77
4.13 3.80 3.67 3.58 3.41 3.26 3.25 3.26 3.33 3.31 3.32 3.31 3.23 3.10 3.08 3.08 2.90 2.81 2.51 2.22 2.19 2.00 1.91 1.84 1.80 1.88 1.93 1.94 1.88 1.97 1.70 1.59 1.56 1.63 1.79 1.95 2.16 2.36 2.44 2.52 2.58 2.63 2.68
3.52 3.22 3.02 2.94 2.84 2.78 2.79 2.93 3.04 2.98 2.92 2.96 2.95 2.87 2.81 2.72 2.68 2.69 2.75 2.52 2.23 1.95 1.90 1.80 1.67 1.69 1.69 1.83 1.92 1.95 1.59 1.44 1.43 1.50 1.59 1.63 1.73 1.93 2.12 2.19 2.31 2.45 2.46
2.91 2.71 2.59 2.51 2.45 2.37 2.33 2.50 2.65 2.73 2.71 2.75 2.72 2.82 2.74 2.59 2.57 2.54 2.58 2.67 2.56 2.24 2.03 1.87 1.74 1.73 1.74 1.78 1.91 1.91 1.64 1.66 1.52 1.55 1.58 1.54 1.54 1.57 1.66 1.72 1.76 1.85 1.97
2.37 2.24 2.18 2.18 2.15 2.13 2.17 2.32 2.38 2.34 2.40 2.44 2.51 2.61 2.59 2.53 2.54 2.49 2.55 2.66 2.74 2.59 2.27 1.99 1.92 1.82 1.85 1.89 2.07 1.73 1.74 1.93 1.73 1.61 1.54 1.49 1.47 1.39 1.35 1.37 1.37 1.37 1.38
2.06 2.00 1.97 1.97 2.00 1.96 1.98 2.08 2.18 2.21 2.18 2.14 2.25 2.41 2.45 2.42 2.54 2.60 2.69 2.72 2.73 2.72 2.52 2.10 2.00 1.90 1.90 1.82 2.14 1.85 1.81 1.93 1.68 1.48 1.36 1.28 1.24 1.19 1.18 1.21 1.25 1.29 1.29
2.22 2.05 1.94 2.01 2.00 1.92 1.88 1.91 1.86 1.92 1.99 2.03 2.06 2.16 2.25 2.32 2.46 2.50 2.58 2.59 2.66 2.69 2.59 2.24 2.11 2.09 2.10 2.04 2.07 1.93 1.83 1.77 1.63 1.51 1.32 1.20 1.15 1.11 1.09 1.14 1.19 1.18 1.22
1.96 1.90 1.86 1.92 1.90 1.79 1.78 1.72 1.62 1.67 1.77 1.85 1.90 1.96 2.01 2.06 2.15 2.12 2.23 2.30 2.35 2.44 2.44 2.38 2.33 2.25 2.22 2.16 2.07 1.89 1.63 1.45 1.42 1.42 1.27 1.20 1.16 1.14 1.15 1.19 1.21 1.21 1.18
1.86 1.87 1.88 1.89 1.87 1.79 1.77 1.72 1.67 1.61 1.53 1.56 1.65 1.69 1.74 1.79 1.76 1.70 1.75 1.78 1.90 2.03 2.25 2.26 2.20 2.27 2.23 2.22 2.30 2.01 1.76 1.71 1.33 1.27 1.20 1.19 1.17 1.13 1.12 1.10 1.09 1.08 1.07
1.70 1.78 1.75 1.69 1.65 1.58 1.49 1.53 1.58 1.56 1.48 1.43 1.42 1.44 1.43 1.38 1.35 1.39 1.40 1.46 1.61 1.89 2.09 2.13 2.00 2.01 2.06 2.04 2.22 2.11 1.99 1.87 1.59 1.21 1.16 1.06 1.08 1.08 1.04 0.97 0.93 0.91 0.92
1.44 1.54 1.52 1.51 1.45 1.36 1.27 1.30 1.35 1.35 1.38 1.35 1.31 1.27 1.20 1.17 1.18 1.16 1.08 1.21 1.46 1.74 1.87 1.94 1.93 1.87 1.84 1.90 1.95 1.85 1.84 1.86 1.76 1.45 1.35 1.10 1.00 1.02 1.04 1.02 0.97 0.88 0.81
1.42 1.44 1.43 1.36 1.26 1.09 1.11 1.11 1.07 1.11 1.23 1.31 1.28 1.18 1.07 1.02 0.99 0.98 0.98 1.06 1.21 1.37 1.50 1.64 1.69 1.69 1.68 1.74 1.85 1.85 1.85 1.88 1.84 1.60 1.56 1.39 1.15 1.22 1.16 1.05 0.98 0.88 0.85
1.43 1.35 1.26 1.18 1.07 1.01 0.99 0.97 1.01 1.07 1.17 1.24 1.27 1.27 1.09 0.91 0.99 1.01 1.03 1.07 1.09 1.14 1.25 1.43 1.55 1.53 1.59 1.72 1.93 1.92 1.94 1.92 1.82 1.65 1.73 1.67 1.48 1.41 1.14 0.98 0.99 0.90 0.85
1.38 1.32 1.20 1.09 1.03 0.94 0.92 0.92 0.95 0.98 1.14 1.17 1.17 1.18 1.20 1.14 1.07 1.10 1.07 1.09 1.09 1.14 1.20 1.27 1.42 1.47 1.46 1.60 1.82 1.84 1.87 1.88 1.78 1.67 1.77 1.81 1.53 1.43 1.13 1.16 1.05 0.88 0.81
1.30 1.22 1.13 1.10 1.07 0.95 0.87 0.85 0.90 0.98 1.11 1.11 1.03 1.01 1.00 0.99 0.99 1.07 1.14 1.22 1.21 1.18 1.05 1.10 1.16 1.25 1.37 1.46 1.55 1.63 1.78 1.94 1.86 1.69 1.68 1.78 1.62 1.48 1.31 1.32 1.15 0.97 0.90
1.23 1.10 1.04 1.07 1.06 1.03 0.89 0.79 0.87 0.90 0.96 0.99 0.99 0.95 0.91 0.85 0.84 0.86 0.94 1.15 1.27 1.19 1.11 1.11 1.23 1.38 1.45 1.50 1.49 1.55 1.72 1.87 1.85 1.85 1.66 1.72 1.69 1.65 1.60 1.36 1.23 1.16 1.13

GEFSMA_prec_meanprecacc_300.txt.gz
Total_Precipitation_Accumulation
2.52 2.83 2.81 2.97 2.61 2.57 2.69 2.64 2.43 2.31 2.09 1.90 1.83 1.78 1.85 1.89 1.98 2.19 2.18 2.09 2.22 2.60 3.15 3.49 3.54 3.48 3.43 3.30 3.13 2.97 2.74 2.59 2.43 2.20 1.94 1.69 1.55 1.49 1.51 1.56 1.56 1.51 1.53
2.95 3.27 3.37 3.38 3.17 3.21 3.36 3.39 3.18 2.94 2.66 2.57 2.35 2.29 2.24 2.27 2.43 2.45 2.37 2.28 2.16 2.25 2.80 3.33 3.70 3.87 3.81 3.57 3.31 3.13 3.00 2.84 2.66 2.45 2.22 2.01 1.85 1.74 1.66 1.64 1.63 1.57 1.48
3.52 3.62 3.92 3.86 3.64 3.64 3.68 3.64 3.86 3.81 3.28 2.94 2.84 2.82 2.73 2.63 2.80 2.90 2.97 2.77 2.43 2.32 2.51 2.90 3.28 3.51 3.60 3.67 3.58 3.39 3.32 3.01 2.73 2.53 2.36 2.24 2.16 2.07 1.92 1.78 1.75 1.74 1.62
3.87 3.90 3.92 3.98 3.90 3.90 4.20 4.33 4.28 4.18 3.93 3.53 3.38 3.17 3.03 3.05 2.86 2.87 2.99 2.85 2.76 2.42 2.28 2.37 2.63 2.86 3.21 3.58 3.78 3.80 3.66 3.40 3.06 2.79 2.67 2.55 2.39 2.22 2.05 1.90 1.84 1.82 1.76
4.34 4.40 4.36 4.49 4.35 4.41 4.40 4.26 4.66 4.60 4.45 4.03 3.56 3.36 3.08 3.04 2.91 2.60 2.65 2.67 2.65 2.51 2.39 2.27 2.49 2.67 2.97 3.40 3.74 3.94 3.93 3.78 3.52 3.24 3.09 2.94 2.74 2.48 2.22 2.07 2.00 1.93 1.91
5.13 5.13 5.09 5.09 4.96 4.82 4.70 4.68 4.79 4.58 4.42 4.13 3.60 3.35 3.02 2.66 2.57 2.56 2.33 2.46 2.41 2.20 2.29 2.34 2.44 2.34 2.71 3.00 3.34 3.66 3.77 3.85 3.75 3.44 3.19 3.16 3.04 2.80 2.56 2.39 2.25 2.14 2.10
5.63 5.47 5.31 5.42 5.27 5.02 4.78 4.72 4.72 4.62 4.26 4.20 4.22 3.75 3.07 2.63 2.41 2.23 2.25 2.32 2.15 2.13 2.42 2.43 2.34 2.24 2.20 2.49 2.72 3.04 3.38 3.62 3.84 3.77 3.58 3.41 3.11 2.83 2.69 2.61 2.56 2.41 2.24
5.93 5.75 5.75 5.58 5.41 5.26 4.97 4.75 4.70 4.61 4.28 4.31 4.33 4.26 3.47 2.91 2.29 1.81 1.92 1.97 1.95 2.04 2.13 2.09 2.07 2.12 2.11 2.19 2.15 2.52 2.99 3.27 3.60 3.77 3.75 3.44 3.18 2.90 2.81 2.79 2.78 2.70 2.57
6.16 6.05 6.01 5.73 5.53 5.29 4.96 4.68 4.54 4.45 4.32 4.33 4.21 4.31 3.71 3.01 2.49 2.01 1.75 1.67 1.74 1.89 1.89 1.98 1.93 1.94 2.01 2.17 2.21 2.19 2.33 2.44 2.87 3.29 3.44 3.42 3.29 3.04 2.90 2.89 2.91 2.91 2.90
5.49 5.43 5.44 5.31 5.14 4.83 4.62 4.31 4.20 4.13 4.27 4.09 4.05 3.83 3.54 3.18 2.95 2.53 2.10 1.83 1.79 1.80 1.81 1.83 1.86 1.92 1.99 2.09 2.20 2.11 2.03 1.97 2.18 2.56 2.85 2.93 2.93 2.86 2.81 2.81 2.84 2.91 2.95
4.74 4.55 4.54 4.48 4.33 4.12 3.94 3.90 3.95 3.86 3.78 3.62 3.51 3.51 3.54 3.48 3.12 2.77 2.40 2.11 2.01 1.89 1.87 1.89 2.01 2.05 2.03 2.06 2.07 1.97 1.94 1.83 1.84 2.06 2.28 2.42 2.58 2.69 2.72 2.69 2.65 2.73 2.86
4.18 3.84 3.72 3.65 3.47 3.32 3.32 3.35 3.45 3.43 3.44 3.41 3.32 3.19 3.16 3.17 2.97 2.87 2.56 2.27 2.24 2.05 1.97 1.91 1.87 1.95 1.99 1.99 1.93 2.02 1.74 1.63 1.59 1.66 1.83 2.00 2.20 2.42 2.50 2.58 2.64 2.70 2.78
3.57 3.27 3.07 3.01 2.90 2.84 2.84 3.00 3.12 3.07 3.03 3.07 3.04 2.95 2.88 2.81 2.76 2.76 2.82 2.57 2.27 1.99 1.94 1.84 1.71 1.74 1.74 1.88 1.96 1.98 1.61 1.46 1.45 1.52 1.63 1.67 1.78 1.98 2.18 2.27 2.39 2.51 2.52
2.96 2.75 2.62 2.55 2.49 2.41 2.37 2.56 2.70 2.79 2.78 2.83 2.79 2.89 2.82 2.66 2.64 2.60 2.65 2.74 2.60 2.28 2.07 1.90 1.78 1.77 1.78 1.84 1.96 1.95 1.67 1.69 1.54 1.56 1.60 1.56 1.56 1.59 1.68 1.78 1.86 1.97 2.06
2.41 2.27 2.21 2.21 2.19 2.18 2.22 2.38 2.44 2.40 2.46 2.50 2.56 2.68 2.66 2.59 2.61 2.55 2.61 2.72 2.81 2.64 2.33 2.04 1.96 1.85 1.89 1.93 2.12 1.77 1.80 1.98 1.75 1.63 1.56 1.51 1.48 1.40 1.36 1.39 1.41 1.43 1.47
2.10 2.03 2.00 2.00 2.03 1.99 2.02 2.13 2.24 2.27 2.25 2.22 2.32 2.48 2.53 2.48 2.60 2.66 2.74 2.77 2.79 2.77 2.56 2.15 2.04 1.94 1.93 1.85 2.18 1.89 1.87 1.97 1.71 1.50 1.38 1.30 1.25 1.20 1.19 1.23 1.26 1.31 1.32
2.26 2.09 1.98 2.04 2.03 1.95 1.93 1.95 1.90 1.97 2.06 2.10 2.13 2.22 2.32 2.39 2.52 2.56 2.62 2.64 2.70 2.74 2.64 2.28 2.15 2.13 2.14 2.07 2.10 1.97 1.88 1.82 1.68 1.56 1.35 1.23 1.18 1.13 1.11 1.16 1.20 1.20 1.24
1.99 1.93 1.90 1.96 1.93 1.81 1.81 1.76 1.66 1.72 1.82 1.91 1.96 2.03 2.09 2.14 2.24 2.19 2.28 2.34 2.38 2.47 2.47 2.41 2.36 2.27 2.26 2.20 2.11 1.94 1.66 1.48 1.46 1.46 1.31 1.24 1.19 1.15 1.17 1.20 1.21 1.21 1.19
1.90 1.92 1.93 1.94 1.92 1.83 1.80 1.76 1.72 1.66 1.59 1.62 1.71 1.76 1.82 1.88 1.85 1.78 1.82 1.83 1.94 2.05 2.28 2.30 2.23 2.31 2.26 2.26 2.35 2.05 1.79 1.75 1.35 1.29 1.23 1.22 1.20 1.15 1.13 1.11 1.10 1.08 1.08
1.74 1.83 1.79 1.74 1.71 1.63 1.53 1.56 1.63 1.63 1.55 1.51 1.51 1.52 1.51 1.46 1.43 1.48 1.50 1.55 1.68 1.94 2.14 2.16 2.04 2.04 2.09 2.07 2.27 2.15 2.04 1.91 1.62 1.23 1.19 1.09 1.10 1.09 1.06 0.99 0.94 0.91 0.93
1.48 1.58 1.56 1.55 1.49 1.39 1.29 1.32 1.38 1.38 1.43 1.42 1.40 1.37 1.30 1.27 1.29 1.26 1.18 1.31 1.56 1.81 1.92 1.98 1.96 1.91 1.87 1.94 1.98 1.87 1.87 1.89 1.79 1.48 1.39 1.14 1.04 1.05 1.07 1.04 0.98 0.89 0.82
1.47 1.48 1.47 1.40 1.30 1.12 1.13 1.13 1.09 1.13 1.26 1.35 1.34 1.26 1.16 1.12 1.10 1.09 1.08 1.15 1.29 1.44 1.57 1.70 1.73 1.72 1.72 1.76 1.88 1.88 1.88 1.91 1.87 1.63 1.60 1.43 1.20 1.28 1.21 1.09 1.00 0.90 0.87
1.48 1.41 1.32 1.22 1.11 1.05 1.02 0.98 1.02 1.09 1.19 1.27 1.30 1.31 1.13 0.96 1.06 1.09 1.11 1.14 1.16 1.21 1.31 1.49 1.60 1.57 1.63 1.75 1.97 1.96 1.99 1.97 1.86 1.69 1.78 1.71 1.53 1.47 1.19 1.02 1.02 0.91 0.86
1.45 1.37 1.26 1.14 1.07 0.97 0.94 0.93 0.96 0.99 1.16 1.20 1.20 1.21 1.24 1.19 1.12 1.15 1.12 1.14 1.14 1.18 1.24 1.31 1.47 1.51 1.50 1.63 1.86 1.88 1.92 1.92 1.81 1.70 1.81 1.85 1.57 1.47 1.17 1.20 1.08 0.89 0.82
1.36 1.27 1.18 1.16 1.12 0.99 0.90 0.86 0.92 0.99 1.13 1.12 1.05 1.03 1.02 1.02 1.03 1.11 1.18 1.26 1.25 1.21 1.07 1.12 1.18 1.27 1.39 1.48 1.57 1.66 1.81 1.98 1.89 1.71 1.72 1.82 1.65 1.52 1.35 1.37 1.18 0.99 0.91
1.28 1.15 1.09 1.13 1.12 1.07 0.92 0.81 0.89 0.92 0.98 1.00 1.01 0.96 0.92 0.87 0.86 0.88 0.96 1.18 1.30 1.22 1.14 1.13 1.25 1.39 1.47 1.52 1.50 1.57 1.76 1.90 1.88 1.88 1.69 1.75 1.72 1.69 1.63 1.38 1.26 1.19 1.15

GEFSMA_prec_meanprecacc_306.txt.gz
Total_Precipitation_Accumulation
2.55 2.84 2.82 2.99 2.62 2.58 2.70 2.65 2.44 2.32 2.10 1.93 1.86 1.81 1.89 1.93 2.00 2.21 2.24 2.14 2.27 2.68 3.25 3.60 3.64 3.57 3.50 3.35 3.18 3.01 2.78 2.63 2.47 2.25 1.99 1.75 1.63 1.56 1.56 1.59 1.60 1.54 1.56
2.97 3.29 3.39 3.40 3.18 3.21 3.37 3.41 3.20 2.95 2.67 2.59 2.37 2.33 2.28 2.31 2.46 2.49 2.43 2.33 2.22 2.33 2.87 3.40 3.77 3.95 3.88 3.63 3.36 3.18 3.05 2.88 2.70 2.49 2.28 2.08 1.95 1.83 1.71 1.68 1.67 1.61 1.50
3.54 3.63 3.94 3.88 3.66 3.66 3.69 3.66 3.88 3.83 3.30 2.97 2.86 2.84 2.76 2.65 2.82 2.93 3.01 2.83 2.49 2.39 2.59 2.98 3.35 3.59 3.68 3.74 3.64 3.46 3.39 3.07 2.79 2.58 2.43 2.30 2.23 2.15 1.98 1.83 1.79 1.78 1.65
3.88 3.91 3.93 3.99 3.91 3.91 4.21 4.35 4.30 4.20 3.96 3.56 3.40 3.20 3.05 3.07 2.88 2.89 3.01 2.89 2.81 2.46 2.33 2.41 2.66 2.90 3.28 3.67 3.86 3.89 3.75 3.48 3.12 2.86 2.73 2.61 2.44 2.28 2.12 1.96 1.88 1.85 1.79
4.36 4.42 4.38 4.50 4.36 4.44 4.43 4.28 4.69 4.62 4.47 4.05 3.58 3.39 3.10 3.07 2.94 2.63 2.67 2.69 2.67 2.54 2.42 2.30 2.52 2.70 3.01 3.48 3.83 4.03 4.01 3.85 3.59 3.31 3.16 3.02 2.80 2.53 2.28 2.12 2.04 1.96 1.94
5.16 5.17 5.12 5.13 5.00 4.87 4.75 4.71 4.83 4.62 4.45 4.15 3.62 3.37 3.05 2.69 2.60 2.59 2.35 2.48 2.43 2.23 2.33 2.39 2.49 2.38 2.76 3.07 3.46 3.79 3.85 3.92 3.81 3.50 3.27 3.22 3.09 2.85 2.61 2.44 2.30 2.17 2.13
5.68 5.53 5.36 5.47 5.32 5.06 4.82 4.77 4.77 4.66 4.30 4.25 4.27 3.81 3.12 2.68 2.44 2.25 2.27 2.35 2.18 2.16 2.45 2.47 2.39 2.30 2.25 2.54 2.82 3.17 3.50 3.73 3.93 3.85 3.66 3.49 3.19 2.89 2.75 2.66 2.61 2.45 2.27
5.99 5.80 5.80 5.61 5.44 5.29 5.02 4.81 4.76 4.66 4.31 4.36 4.38 4.33 3.54 2.98 2.33 1.83 1.95 2.00 1.98 2.07 2.16 2.13 2.10 2.17 2.17 2.26 2.23 2.63 3.11 3.39 3.73 3.90 3.86 3.52 3.25 2.98 2.90 2.87 2.84 2.75 2.62
6.21 6.11 6.07 5.77 5.57 5.33 5.00 4.72 4.60 4.51 4.37 4.37 4.25 4.35 3.76 3.05 2.54 2.06 1.79 1.70 1.78 1.93 1.94 2.04 1.99 2.02 2.09 2.25 2.29 2.30 2.46 2.54 2.97 3.42 3.57 3.53 3.37 3.11 2.96 2.96 2.97 2.96 2.94
5.54 5.50 5.51 5.35 5.18 4.89 4.67 4.36 4.25 4.19 4.33 4.15 4.10 3.88 3.58 3.21 2.97 2.57 2.14 1.88 1.84 1.83 1.86 1.88 1.91 1.99 2.06 2.18 2.29 2.23 2.14 2.05 2.24 2.62 2.94 3.03 3.04 2.95 2.87 2.86 2.90 2.96 2.99
4.78 4.61 4.63 4.53 4.38 4.19 4.01 3.95 4.00 3.92 3.85 3.68 3.58 3.59 3.61 3.53 3.15 2.81 2.45 2.16 2.05 1.93 1.91 1.93 2.05 2.08 2.05 2.09 2.11 2.06 2.03 1.88 1.88 2.10 2.34 2.49 2.66 2.79 2.81 2.77 2.71 2.77 2.90
4.22 3.89 3.78 3.71 3.53 3.36 3.34 3.38 3.48 3.48 3.52 3.50 3.41 3.27 3.24 3.24 3.03 2.91 2.60 2.31 2.27 2.08 2.00 1.93 1.90 1.98 2.03 2.03 1.97 2.09 1.80 1.67 1.62 1.69 1.87 2.05 2.28 2.49 2.59 2.67 2.74 2.79 2.86
3.63 3.32 3.12 3.06 2.95 2.88 2.87 3.02 3.15 3.11 3.08 3.13 3.11 3.02 2.96 2.88 2.82 2.82 2.89 2.64 2.32 2.02 1.97 1.87 1.74 1.76 1.77 1.91 1.99 2.02 1.65 1.49 1.48 1.55 1.66 1.70 1.84 2.05 2.25 2.35 2.48 2.62 2.63
2.99 2.80 2.68 2.61 2.53 2.45 2.40 2.59 2.73 2.80 2.80 2.85 2.81 2.93 2.87 2.72 2.71 2.68 2.73 2.81 2.66 2.33 2.11 1.93 1.81 1.79 1.80 1.87 1.99 1.98 1.69 1.71 1.56 1.58 1.62 1.58 1.58 1.63 1.72 1.81 1.91 2.03 2.14
2.45 2.31 2.25 2.26 2.23 2.20 2.25 2.41 2.46 2.42 2.48 2.52 2.59 2.70 2.68 2.63 2.66 2.62 2.70 2.82 2.89 2.71 2.39 2.08 1.99 1.88 1.92 1.96 2.15 1.79 1.81 1.99 1.76 1.64 1.57 1.52 1.49 1.42 1.38 1.40 1.43 1.47 1.51
2.14 2.08 2.04 2.04 2.07 2.02 2.04 2.16 2.25 2.29 2.27 2.24 2.34 2.51 2.55 2.50 2.63 2.70 2.79 2.83 2.86 2.85 2.63 2.21 2.09 1.97 1.96 1.87 2.20 1.90 1.88 1.98 1.71 1.51 1.39 1.31 1.26 1.21 1.20 1.25 1.29 1.33 1.34
2.30 2.14 2.02 2.08 2.07 1.98 1.97 1.99 1.93 2.00 2.09 2.13 2.16 2.26 2.35 2.42 2.55 2.59 2.66 2.68 2.74 2.79 2.68 2.32 2.19 2.16 2.16 2.09 2.12 1.98 1.88 1.83 1.68 1.56 1.36 1.24 1.19 1.14 1.12 1.18 1.22 1.21 1.26
2.03 1.98 1.95 1.99 1.97 1.86 1.86 1.80 1.69 1.74 1.84 1.93 2.00 2.07 2.13 2.18 2.28 2.24 2.34 2.38 2.42 2.52 2.52 2.45 2.40 2.31 2.28 2.22 2.13 1.94 1.67 1.49 1.47 1.47 1.31 1.24 1.20 1.17 1.18 1.22 1.23 1.23 1.20
1.95 1.96 1.99 1.98 1.96 1.88 1.84 1.80 1.74 1.69 1.61 1.64 1.74 1.80 1.86 1.93 1.90 1.84 1.88 1.88 1.99 2.10 2.33 2.34 2.28 2.35 2.30 2.28 2.37 2.06 1.80 1.76 1.35 1.29 1.24 1.22 1.21 1.16 1.15 1.14 1.12 1.10 1.09
1.78 1.87 1.83 1.78 1.75 1.67 1.57 1.61 1.66 1.66 1.57 1.54 1.54 1.56 1.55 1.50 1.47 1.52 1.55 1.60 1.73 2.00 2.20 2.21 2.08 2.08 2.12 2.10 2.28 2.16 2.05 1.92 1.63 1.23 1.19 1.10 1.11 1.11 1.07 1.00 0.96 0.93 0.94
1.52 1.62 1.60 1.58 1.53 1.44 1.34 1.37 1.44 1.43 1.46 1.44 1.42 1.39 1.32 1.29 1.31 1.29 1.23 1.37 1.63 1.89 2.00 2.05 2.01 1.95 1.91 1.98 2.01 1.90 1.89 1.91 1.81 1.49 1.40 1.15 1.05 1.06 1.08 1.05 0.99 0.90 0.84
1.51 1.51 1.50 1.43 1.33 1.16 1.18 1.19 1.17 1.21 1.31 1.37 1.36 1.27 1.18 1.14 1.12 1.12 1.11 1.20 1.35 1.52 1.67 1.80 1.81 1.79 1.77 1.82 1.93 1.93 1.92 1.95 1.89 1.65 1.62 1.45 1.22 1.29 1.23 1.10 1.01 0.92 0.88
1.52 1.43 1.35 1.25 1.14 1.08 1.06 1.04 1.08 1.14 1.24 1.30 1.33 1.34 1.15 0.98 1.08 1.11 1.13 1.17 1.19 1.26 1.39 1.58 1.70 1.65 1.69 1.81 2.03 2.02 2.05 2.03 1.92 1.74 1.81 1.74 1.55 1.48 1.21 1.04 1.04 0.93 0.87
1.48 1.40 1.28 1.17 1.10 1.01 0.97 0.97 1.00 1.03 1.19 1.23 1.22 1.24 1.26 1.20 1.14 1.17 1.14 1.16 1.16 1.21 1.28 1.36 1.52 1.57 1.55 1.68 1.91 1.92 1.96 1.96 1.85 1.74 1.84 1.89 1.60 1.50 1.19 1.22 1.10 0.92 0.84
1.38 1.30 1.21 1.18 1.16 1.03 0.94 0.90 0.95 1.02 1.15 1.15 1.06 1.05 1.04 1.03 1.05 1.14 1.21 1.29 1.29 1.25 1.11 1.16 1.22 1.32 1.44 1.52 1.60 1.68 1.84 2.01 1.91 1.74 1.74 1.84 1.67 1.54 1.38 1.39 1.21 1.01 0.92
1.30 1.18 1.13 1.16 1.16 1.11 0.96 0.85 0.92 0.95 1.00 1.02 1.02 0.97 0.93 0.88 0.87 0.90 0.98 1.19 1.32 1.24 1.17 1.18 1.29 1.43 1.50 1.55 1.53 1.59 1.78 1.94 1.92 1.91 1.71 1.77 1.75 1.71 1.65 1.40 1.28 1.21 1.16